KJ6MC Weather Reports


time (UTC)temp
C
wind
direction
speed
KPH
gust
KPH
rain 1hr
cm
rain 24hr
cm
rain mn
cm
humidity
%
barometer
mb
20260904224234 25 215 3.2 14.5 0.00 0.08 0.08 43 1012.5
20260904224131 25 245 3.2 14.5 0.00 0.08 0.08 44 1012.5
20260904224029 25 236 4.8 22.5 0.00 0.08 0.08 43 1012.5
20260904224006 25 198 4.8 22.5 0.00 0.08 0.08 44 1012.5
20260904223930 25 250 4.8 22.5 0.00 0.08 0.08 45 1012.5
20260904223827 25 233 4.8 22.5 0.00 0.08 0.08 44 1012.5
20260904223725 25 269 4.8 22.5 0.00 0.08 0.08 44 1012.5
20260904223622 25 249 4.8 22.5 0.00 0.08 0.08 45 1012.6
20260904223522 25 250 4.8 22.5 0.00 0.08 0.08 43 1012.6
20260904223501 25 250 4.8 22.5 0.00 0.08 0.08 43 1012.6
20260904223421 25 235 4.8 22.5 0.00 0.08 0.08 44 1012.6
20260904223321 25 217 4.8 22.5 0.00 0.08 0.08 43 1012.7
20260904223220 25 211 4.8 12.9 0.00 0.08 0.08 42 1012.7
20260904223216 25 233 4.8 22.5 0.00 0.08 0.08 42 1012.6
20260904223115 25 150 4.8 22.5 0.00 0.08 0.08 42 1012.7
20260904223105 25 193 4.8 12.9 0.00 0.08 0.08 42 1012.7
20260904222916 25 197 4.8 12.9 0.00 0.08 0.08 42 1012.7
20260904222815 25 228 4.8 12.9 0.00 0.08 0.08 42 1012.6
20260904222715 25 132 4.8 12.9 0.00 0.08 0.08 42 1012.7
20260904222615 25 248 4.8 12.9 0.00 0.08 0.08 43 1012.7
20260904222513 25 249 4.8 12.9 0.00 0.08 0.08 42 1012.7
20260904222459 25 248 4.8 12.9 0.00 0.08 0.08 42 1012.7
20260904222411 25 235 4.8 12.9 0.00 0.08 0.08 41 1012.7
20260904222309 25 221 4.8 12.9 0.00 0.08 0.08 42 1012.7
20260904222205 25 181 4.8 12.9 0.00 0.08 0.08 41 1012.7
20260904222104 25 150 4.8 12.9 0.00 0.08 0.08 42 1012.7
20260904222005 25 146 4.8 12.9 0.00 0.08 0.08 42 1012.6
20260904221954 25 188 4.8 12.9 0.00 0.08 0.08 42 1012.6
20260904221905 26 231 3.2 12.9 0.00 0.08 0.08 42 1012.7
20260904221803 26 223 3.2 11.3 0.00 0.08 0.08 42 1012.7
20260904221700 26 110 3.2 9.7 0.00 0.08 0.08 42 1012.7
20260904221600 26 156 3.2 9.7 0.00 0.08 0.08 43 1012.7
20260904221505 26 194 3.2 9.7 0.00 0.08 0.08 43 1012.7
20260904221455 26 200 3.2 9.7 0.00 0.08 0.08 43 1012.7
20260904221400 26 225 3.2 9.7 0.00 0.08 0.08 43 1012.7
20260904221257 26 233 3.2 9.7 0.00 0.08 0.08 42 1012.7
20260904221152 26 262 4.8 11.3 0.00 0.08 0.08 43 1012.6
20260904221052 25 248 4.8 12.9 0.00 0.08 0.08 43 1012.7
20260904220957 25 135 4.8 12.9 0.00 0.08 0.08 43 1012.6
20260904220951 25 136 4.8 12.9 0.00 0.08 0.08 43 1012.6
20260904220852 25 119 4.8 12.9 0.00 0.08 0.08 44 1012.6
20260904220752 25 134 6.4 12.9 0.00 0.08 0.08 43 1012.6
20260904220709 25 238 6.4 12.9 0.00 0.08 0.08 44 1012.7
20260904220648 25 143 6.4 12.9 0.00 0.08 0.08 44 1012.7
20260904220603 25 161 6.4 12.9 0.00 0.08 0.08 43 1012.7
20260904220446 25 248 6.4 12.9 0.00 0.08 0.08 44 1012.7
20260904220345 25 236 6.4 12.9 0.00 0.08 0.08 44 1012.7
20260904220246 25 183 6.4 14.5 0.00 0.08 0.08 44 1012.7
20260904220142 25 117 6.4 16.1 0.00 0.08 0.08 45 1012.8
20260904220040 25 163 8.0 17.7 0.00 0.08 0.08 45 1012.7
20260904215949 25 160 8.0 17.7 0.00 0.08 0.08 44 1012.7
20260904215940 25 138 8.0 17.7 0.00 0.08 0.08 44 1012.7
20260904215839 25 197 8.0 17.7 0.00 0.08 0.08 45 1012.7
20260904215740 25 228 8.0 17.7 0.00 0.08 0.08 45 1012.7
20260904215635 25 236 8.0 17.7 0.00 0.08 0.08 45 1012.7
20260904215534 25 259 8.0 17.7 0.00 0.08 0.08 44 1012.7
20260904215449 25 195 8.0 17.7 0.00 0.08 0.08 44 1012.7
20260904215434 25 246 8.0 17.7 0.00 0.08 0.08 44 1012.7
20260904215334 25 260 6.4 17.7 0.00 0.08 0.08 44 1012.7
20260904215234 25 243 6.4 17.7 0.00 0.08 0.08 44 1012.7
20260904215128 25 245 4.8 17.7 0.00 0.08 0.08 44 1012.7
20260904215027 25 146 4.8 14.5 0.00 0.08 0.08 43 1012.7
20260904214949 25 143 3.2 14.5 0.00 0.08 0.08 44 1012.7
20260904214928 25 149 3.2 14.5 0.00 0.08 0.08 44 1012.7
20260904214828 25 187 3.2 11.3 0.00 0.08 0.08 45 1012.7
20260904214728 25 141 3.2 11.3 0.00 0.08 0.08 44 1012.7
20260904214708 25 125 1.6 9.7 0.00 0.08 0.08 46 1012.7
20260904214621 25 200 1.6 9.7 0.00 0.08 0.08 44 1012.7
20260904214557 25 142 1.6 9.7 0.00 0.08 0.08 44 1012.6
20260904214421 25 145 1.6 9.7 0.00 0.08 0.08 46 1012.7
20260904214322 25 241 1.6 9.7 0.00 0.08 0.08 45 1012.6
20260904214222 25 214 1.6 9.7 0.00 0.08 0.08 45 1012.7
20260904214118 25 191 1.6 9.7 0.00 0.08 0.08 46 1012.7
20260904214016 25 235 3.2 9.7 0.00 0.08 0.08 46 1012.7
20260904213946 25 225 3.2 9.7 0.00 0.08 0.08 46 1012.7
20260904213915 25 219 3.2 9.7 0.00 0.08 0.08 46 1012.7
20260904213816 25 232 3.2 11.3 0.00 0.08 0.08 46 1012.7
20260904213716 25 226 4.8 11.3 0.00 0.08 0.08 47 1012.8
20260904213610 25 228 3.2 12.9 0.00 0.08 0.08 47 1012.8
20260904213510 25 230 4.8 12.9 0.00 0.08 0.08 47 1012.8
20260904213447 25 229 4.8 12.9 0.00 0.08 0.08 47 1012.8
20260904213409 25 245 3.2 12.9 0.00 0.08 0.08 47 1012.8
20260904213310 25 266 3.2 12.9 0.00 0.08 0.08 46 1012.8
20260904213210 25 232 3.2 12.9 0.00 0.08 0.08 47 1012.7
20260904213103 25 291 3.2 12.9 0.00 0.08 0.08 47 1012.8
20260904213004 25 222 3.2 12.9 0.00 0.08 0.08 47 1012.7
20260904212944 25 256 3.2 12.9 0.00 0.08 0.08 47 1012.7
20260904212904 25 123 3.2 12.9 0.00 0.08 0.08 47 1012.8
20260904212804 25 207 3.2 12.9 0.00 0.08 0.08 47 1012.8
20260904212704 25 233 3.2 11.3 0.00 0.08 0.08 47 1012.7
20260904212602 25 271 3.2 9.7 0.00 0.08 0.08 48 1012.7
20260904212501 25 252 3.2 9.7 0.00 0.08 0.08 49 1012.7
20260904212445 25 210 3.2 9.7 0.00 0.08 0.08 49 1012.7
20260904212402 25 321 3.2 9.7 0.00 0.08 0.08 48 1012.7
20260904212300 25 345 3.2 9.7 0.00 0.08 0.08 49 1012.7
20260904212158 25 315 3.2 9.7 0.00 0.08 0.08 48 1012.7
20260904212051 25 40 3.2 9.7 0.00 0.08 0.08 47 1012.8
20260904211958 25 103 3.2 9.7 0.00 0.08 0.08 47 1012.8
20260904211948 25 70 3.2 9.7 0.00 0.08 0.08 47 1012.8
20260904211852 25 236 3.2 9.7 0.00 0.08 0.08 47 1012.8
20260904211751 25 215 3.2 9.7 0.00 0.08 0.08 47 1012.8
20260904211652 25 212 1.6 8.0 0.00 0.08 0.08 47 1012.8
20260904211549 25 102 1.6 8.0 0.00 0.08 0.08 48 1012.8
20260904211449 25 114 1.6 8.0 0.00 0.08 0.08 49 1012.8
20260904211347 24 138 1.6 6.4 0.00 0.08 0.08 49 1012.8
20260904211248 24 136 3.2 9.7 0.00 0.08 0.08 49 1012.8
20260904211148 24 217 3.2 9.7 0.00 0.08 0.08 49 1012.7
20260904211040 24 230 3.2 9.7 0.00 0.08 0.08 49 1012.7
20260904210945 24 286 4.8 11.3 0.00 0.08 0.08 50 1012.8
20260904210939 24 287 4.8 11.3 0.00 0.08 0.08 50 1012.8
20260904210840 24 308 4.8 11.3 0.00 0.08 0.08 50 1012.8
20260904210741 24 195 4.8 11.3 0.00 0.08 0.08 50 1012.8
20260904210708 23 146 6.4 11.3 0.00 0.08 0.08 51 1012.9
20260904210639 24 242 4.8 11.3 0.00 0.08 0.08 50 1012.8
20260904210533 23 250 6.4 11.3 0.00 0.08 0.08 51 1012.9
20260904210434 23 114 6.4 12.9 0.00 0.08 0.08 51 1012.9
20260904210335 23 153 6.4 12.9 0.00 0.08 0.08 50 1012.9
20260904210234 23 231 6.4 12.9 0.00 0.08 0.08 50 1012.9
20260904210132 23 232 4.8 12.9 0.00 0.08 0.08 49 1012.9
20260904210026 24 248 4.8 12.9 0.00 0.08 0.08 49 1012.9
20260904205944 24 221 4.8 12.9 0.00 0.08 0.08 49 1012.9
20260904205925 24 242 4.8 12.9 0.00 0.08 0.08 49 1012.9
20260904205826 24 253 4.8 12.9 0.00 0.08 0.08 48 1012.9
20260904205727 24 214 4.8 14.5 0.00 0.08 0.08 48 1012.8
20260904205658 25 259 3.2 14.5 0.00 0.08 0.08 47 1012.8
20260904205623 24 172 4.8 14.5 0.00 0.08 0.08 48 1012.8
20260904205549 25 234 4.8 14.5 0.00 0.08 0.08 47 1012.8
20260904205418 25 236 3.2 14.5 0.00 0.08 0.08 48 1012.8
20260904205317 25 139 3.2 14.5 0.00 0.08 0.08 47 1012.8
20260904205217 25 232 3.2 14.5 0.00 0.08 0.08 47 1012.8
20260904205117 25 238 3.2 14.5 0.00 0.08 0.08 46 1012.9
20260904204932 25 239 3.2 14.5 0.00 0.08 0.08 45 1012.9
20260904204914 26 195 3.2 14.5 0.00 0.08 0.08 45 1012.9
20260904204814 26 214 3.2 12.9 0.00 0.08 0.08 45 1012.8
20260904204714 26 235 3.2 9.7 0.00 0.08 0.08 46 1012.8
20260904204652 25 121 3.2 16.1 0.00 0.08 0.08 47 1012.8
20260904204612 26 226 3.2 9.7 0.00 0.08 0.08 46 1012.8
20260904204539 25 240 3.2 16.1 0.00 0.08 0.08 47 1012.8
20260904204405 25 138 3.2 16.1 0.00 0.08 0.08 47 1012.8
20260904204305 25 135 4.8 16.1 0.00 0.08 0.08 47 1012.8
20260904204206 25 20 4.8 16.1 0.00 0.08 0.08 47 1012.9
20260904204141 25 129 4.8 16.1 0.00 0.08 0.08 48 1012.9
20260904204105 25 175 4.8 16.1 0.00 0.08 0.08 48 1012.9
20260904203904 25 239 4.8 16.1 0.00 0.08 0.08 49 1012.9
20260904203800 24 143 4.8 16.1 0.00 0.08 0.08 49 1012.9
20260904203700 24 146 3.2 16.1 0.00 0.08 0.08 49 1012.9
20260904203559 24 143 3.2 16.1 0.00 0.08 0.08 49 1012.9
20260904203454 24 153 3.2 11.3 0.00 0.08 0.08 49 1012.9
20260904203414 24 108 3.2 11.3 0.00 0.08 0.08 49 1013.0
20260904203353 24 49 3.2 11.3 0.00 0.08 0.08 50 1013.0
20260904203255 24 238 3.2 11.3 0.00 0.08 0.08 50 1012.9
20260904203154 24 186 3.2 11.3 0.00 0.08 0.08 50 1012.9
20260904203134 24 43 3.2 9.7 0.00 0.08 0.08 50 1012.9
20260904203052 24 183 1.6 11.3 0.00 0.08 0.08 50 1012.9
20260904203019 24 206 3.2 9.7 0.00 0.08 0.08 50 1012.9
20260904202848 24 43 3.2 9.7 0.00 0.08 0.08 50 1012.9
20260904202747 24 146 3.2 9.7 0.00 0.08 0.08 51 1012.9
20260904202649 23 147 3.2 9.7 0.00 0.08 0.08 51 1012.9
20260904202548 23 146 3.2 9.7 0.00 0.08 0.08 50 1012.9
20260904202444 23 146 3.2 9.7 0.00 0.08 0.08 50 1012.9
20260904202403 23 146 3.2 9.7 0.00 0.08 0.08 50 1013.0
20260904202342 23 146 3.2 9.7 0.00 0.08 0.08 51 1013.0
20260904202242 23 148 3.2 9.7 0.00 0.08 0.08 51 1012.9
20260904202143 23 204 3.2 9.7 0.00 0.08 0.08 51 1012.9
20260904202041 23 252 3.2 9.7 0.00 0.08 0.08 51 1013.0
20260904201940 23 174 1.6 9.7 0.00 0.08 0.08 51 1012.9
20260904201905 23 215 1.6 8.0 0.00 0.08 0.08 51 1013.0
20260904201840 23 226 1.6 8.0 0.00 0.08 0.08 52 1013.0
20260904201740 23 284 3.2 8.0 0.00 0.08 0.08 52 1012.9
20260904201638 23 284 3.2 8.0 0.00 0.08 0.08 53 1013.0
20260904201536 23 285 3.2 9.7 0.00 0.08 0.08 53 1013.0
20260904201432 23 145 3.2 9.7 0.00 0.08 0.08 52 1013.0
20260904201354 23 148 3.2 9.7 0.00 0.08 0.08 52 1013.0
20260904201330 23 139 3.2 9.7 0.00 0.08 0.08 52 1013.0
20260904201230 23 148 3.2 9.7 0.00 0.08 0.08 53 1013.0
20260904201129 23 222 3.2 9.7 0.00 0.08 0.08 54 1013.0
20260904201107 23 243 3.2 9.7 0.00 0.08 0.08 53 1013.0
20260904201029 23 235 3.2 9.7 0.00 0.08 0.08 54 1013.0
20260904200958 23 226 3.2 9.7 0.00 0.08 0.08 53 1013.0
20260904200824 23 236 3.2 9.7 0.00 0.08 0.08 52 1013.0
20260904200724 23 228 3.2 9.7 0.00 0.08 0.08 52 1012.9
20260904200624 23 143 3.2 9.7 0.00 0.08 0.08 53 1013.0
20260904200523 23 248 1.6 9.7 0.00 0.08 0.08 53 1013.0
20260904200421 23 211 1.6 9.7 0.00 0.08 0.08 53 1013.0
20260904200338 23 255 1.6 9.7 0.00 0.08 0.08 53 1013.0
20260904200322 23 239 1.6 9.7 0.00 0.08 0.08 53 1013.0
20260904200222 23 232 1.6 9.7 0.00 0.08 0.08 54 1013.0
20260904200120 23 219 1.6 4.8 0.00 0.08 0.08 53 1013.0
20260904200018 23 215 1.6 4.8 0.00 0.08 0.08 53 1013.0
20260904195912 23 185 1.6 4.8 0.00 0.08 0.08 53 1013.0
20260904195833 23 280 1.6 4.8 0.00 0.08 0.08 54 1013.0
20260904195812 23 311 1.6 4.8 0.00 0.08 0.08 55 1013.0
20260904195712 23 332 1.6 4.8 0.00 0.08 0.08 55 1013.1
20260904195612 23 334 1.6 4.8 0.00 0.08 0.08 55 1013.1
20260904195511 23 335 1.6 4.8 0.00 0.08 0.08 54 1013.1
20260904195407 23 330 1.6 4.8 0.00 0.08 0.08 53 1013.0
20260904195326 23 330 1.6 4.8 0.00 0.08 0.08 54 1013.0
20260904195306 23 326 1.6 4.8 0.00 0.08 0.08 55 1013.1
20260904195206 23 328 1.6 4.8 0.00 0.08 0.08 55 1013.1
20260904195106 23 330 1.6 4.8 0.00 0.08 0.08 54 1013.1
20260904195005 23 321 1.6 4.8 0.00 0.08 0.08 54 1013.1
20260904194905 23 321 1.6 6.4 0.00 0.08 0.08 53 1013.1
20260904194833 23 321 1.6 8.0 0.00 0.08 0.08 53 1013.1
20260904194803 23 321 1.6 9.7 0.00 0.08 0.08 53 1013.1
20260904194704 23 321 1.6 9.7 0.00 0.08 0.08 52 1013.2
20260904194601 23 321 3.2 9.7 0.00 0.08 0.08 52 1013.1
20260904194459 23 321 3.2 9.7 0.00 0.08 0.08 52 1013.2
20260904194400 24 321 3.2 9.7 0.00 0.08 0.08 52 1013.2
20260904194314 24 321 3.2 9.7 0.00 0.08 0.08 52 1013.2
20260904194258 24 321 3.2 9.7 0.00 0.08 0.08 52 1013.2
20260904194158 23 228 3.2 9.7 0.00 0.08 0.08 53 1013.2
20260904194056 23 228 3.2 9.7 0.00 0.08 0.08 52 1013.3
20260904193953 23 228 3.2 9.7 0.00 0.08 0.08 53 1013.3
20260904193851 23 172 3.2 9.7 0.00 0.08 0.08 52 1013.3
20260904193811 23 193 1.6 8.0 0.00 0.08 0.08 52 1013.2
20260904193752 23 208 1.6 8.0 0.00 0.08 0.08 52 1013.2
20260904193653 24 219 1.6 11.3 0.00 0.08 0.08 52 1013.2
20260904193550 24 229 1.6 11.3 0.00 0.08 0.08 51 1013.3
20260904193447 24 221 1.6 11.3 0.00 0.08 0.08 54 1013.3
20260904193342 24 287 1.6 11.3 0.00 0.08 0.08 53 1013.3
20260904193303 24 287 1.6 11.3 0.00 0.08 0.08 54 1013.3
20260904193242 24 300 1.6 11.3 0.00 0.08 0.08 54 1013.3
20260904193145 24 298 1.6 11.3 0.00 0.08 0.08 53 1013.3
20260904193041 24 284 1.6 11.3 0.00 0.08 0.08 54 1013.3
20260904192941 24 284 1.6 11.3 0.00 0.08 0.08 53 1013.3
20260904192842 24 283 1.6 11.3 0.00 0.08 0.08 52 1013.3
20260904192757 24 283 1.6 11.3 0.00 0.08 0.08 52 1013.3
20260904192740 24 281 1.6 11.3 0.00 0.08 0.08 52 1013.3
20260904192637 24 212 1.6 8.0 0.00 0.08 0.08 51 1013.3
20260904192538 24 314 1.6 6.4 0.00 0.08 0.08 53 1013.3
20260904192435 24 29 1.6 6.4 0.00 0.08 0.08 52 1013.3
20260904192336 24 148 1.6 6.4 0.00 0.08 0.08 51 1013.3
20260904192252 24 212 1.6 6.4 0.00 0.08 0.08 53 1013.3
20260904192234 24 225 1.6 6.4 0.00 0.08 0.08 53 1013.3
20260904192132 23 229 1.6 9.7 0.00 0.08 0.08 52 1013.3
20260904192031 24 243 1.6 9.7 0.00 0.08 0.08 53 1013.3
20260904191930 24 219 1.6 9.7 0.00 0.08 0.08 53 1013.4
20260904191828 24 211 1.6 9.7 0.00 0.08 0.08 54 1013.4
20260904191728 23 211 3.2 9.7 0.00 0.08 0.08 55 1013.4
20260904191628 23 201 3.2 9.7 0.00 0.08 0.08 55 1013.4
20260904191526 23 148 3.2 9.7 0.00 0.08 0.08 55 1013.4
20260904191423 23 148 3.2 9.7 0.00 0.08 0.08 54 1013.4
20260904191317 23 205 3.2 9.7 0.00 0.08 0.08 54 1013.4
20260904191239 23 237 3.2 9.7 0.00 0.08 0.08 54 1013.4
20260904191218 23 238 3.2 9.7 0.00 0.08 0.08 54 1013.4
20260904191117 23 232 3.2 11.3 0.00 0.08 0.08 57 1013.4
20260904191018 23 257 3.2 11.3 0.00 0.08 0.08 57 1013.4
20260904190918 23 225 3.2 11.3 0.00 0.08 0.08 57 1013.4
20260904190812 23 210 3.2 11.3 0.00 0.08 0.08 56 1013.4
20260904190732 23 232 1.6 11.3 0.00 0.08 0.08 58 1013.4
20260904190713 23 311 1.6 11.3 0.00 0.08 0.08 58 1013.4
20260904190612 23 311 1.6 11.3 0.00 0.08 0.08 58 1013.4
20260904190511 23 222 1.6 11.3 0.00 0.08 0.08 59 1013.4
20260904190448 23 325 3.2 11.3 0.00 0.08 0.08 56 1013.4
20260904190411 23 342 3.2 11.3 0.00 0.08 0.08 57 1013.4
20260904190305 23 12 3.2 11.3 0.00 0.08 0.08 56 1013.4
20260904190206 23 314 1.6 11.3 0.00 0.08 0.08 56 1013.4
20260904190105 23 266 3.2 8.0 0.00 0.08 0.08 59 1013.5
20260904190006 23 154 3.2 8.0 0.00 0.08 0.08 60 1013.4
20260904185905 23 221 3.2 8.0 0.00 0.08 0.08 61 1013.4
20260904185800 22 239 3.2 8.0 0.00 0.08 0.08 60 1013.4
20260904185721 22 307 3.2 8.0 0.00 0.08 0.08 60 1013.4
20260904185701 22 307 4.8 12.9 0.00 0.08 0.08 60 1013.4
20260904185600 22 321 4.8 12.9 0.00 0.08 0.08 59 1013.5
20260904185500 22 52 4.8 12.9 0.00 0.08 0.08 58 1013.5
20260904185359 22 74 4.8 12.9 0.00 0.08 0.08 58 1013.5
20260904185257 22 72 4.8 12.9 0.00 0.08 0.08 58 1013.5
20260904185214 22 138 4.8 12.9 0.00 0.08 0.08 59 1013.5
20260904185159 22 158 4.8 12.9 0.00 0.08 0.08 59 1013.5
20260904185057 22 239 3.2 12.9 0.00 0.08 0.08 58 1013.5
20260904184955 23 136 3.2 12.9 0.00 0.08 0.08 58 1013.6
20260904184857 23 212 3.2 12.9 0.00 0.08 0.08 58 1013.6
20260904184747 23 217 3.2 12.9 0.00 0.08 0.08 58 1013.5
20260904184709 23 204 3.2 11.3 0.00 0.08 0.08 58 1013.5
20260904184648 23 208 3.2 11.3 0.00 0.08 0.08 58 1013.5
20260904184548 23 153 1.6 9.7 0.00 0.08 0.08 58 1013.6
20260904184448 23 131 1.6 9.7 0.00 0.08 0.08 58 1013.5
20260904184347 22 195 1.6 9.7 0.00 0.08 0.08 59 1013.6
20260904184248 22 149 3.2 9.7 0.00 0.08 0.08 58 1013.6
20260904184202 22 149 3.2 9.7 0.00 0.08 0.08 58 1013.6
20260904184147 22 149 3.2 9.7 0.00 0.08 0.08 58 1013.6
20260904184046 22 193 3.2 9.7 0.00 0.08 0.08 59 1013.6
20260904183943 22 193 3.2 9.7 0.00 0.08 0.08 59 1013.6
20260904183918 22 146 1.6 9.7 0.00 0.08 0.08 63 1013.6
20260904183842 22 146 1.6 9.7 0.00 0.08 0.08 62 1013.6
20260904183808 22 148 1.6 9.7 0.00 0.08 0.08 63 1013.6
20260904183635 21 146 1.6 9.7 0.00 0.08 0.08 63 1013.6
20260904183536 21 165 1.6 9.7 0.00 0.08 0.08 63 1013.7
20260904183436 21 228 1.6 9.7 0.00 0.08 0.08 62 1013.6
20260904183335 21 203 0.0 4.8 0.00 0.08 0.08 63 1013.6
20260904183229 21 163 0.0 3.2 0.00 0.08 0.08 62 1013.7
20260904183151 21 165 1.6 6.4 0.00 0.08 0.08 62 1013.7
20260904183129 21 253 1.6 6.4 0.00 0.08 0.08 62 1013.7
20260904183029 21 253 1.6 8.0 0.00 0.08 0.08 63 1013.7
20260904182930 21 243 1.6 9.7 0.00 0.08 0.08 64 1013.7
20260904182829 21 242 1.6 9.7 0.00 0.08 0.08 64 1013.7
20260904182728 21 242 1.6 9.7 0.00 0.08 0.08 64 1013.7
20260904182648 21 241 1.6 9.7 0.00 0.08 0.08 64 1013.6
20260904182633 22 176 1.6 9.7 0.00 0.08 0.08 62 1013.7
20260904182627 21 242 1.6 9.7 0.00 0.08 0.08 64 1013.6
20260904182528 21 240 1.6 9.7 0.00 0.08 0.08 63 1013.6
20260904182517 21 242 1.6 9.7 0.00 0.08 0.08 63 1013.7
20260904182323 21 173 1.6 9.7 0.00 0.08 0.08 64 1013.6
20260904182220 22 194 1.6 9.7 0.00 0.08 0.08 62 1013.6
20260904182120 22 231 1.6 9.7 0.00 0.08 0.08 62 1013.7
20260904182019 22 243 0.0 9.7 0.00 0.08 0.08 64 1013.6
20260904181920 22 233 0.0 3.2 0.00 0.08 0.08 64 1013.6
20260904181817 22 233 0.0 3.2 0.00 0.08 0.08 64 1013.6
20260904181712 22 232 1.6 4.8 0.00 0.08 0.08 63 1013.6
20260904181647 22 233 1.6 4.8 0.00 0.08 0.08 63 1013.6
20260904181611 22 232 1.6 4.8 0.00 0.08 0.08 63 1013.6
20260904181512 22 233 1.6 4.8 0.00 0.08 0.08 64 1013.6
20260904181411 22 232 1.6 4.8 0.00 0.08 0.08 64 1013.6
20260904181311 22 232 1.6 4.8 0.00 0.08 0.08 64 1013.6
20260904181210 22 233 3.2 4.8 0.00 0.08 0.08 64 1013.7
20260904181154 22 113 3.2 9.7 0.00 0.08 0.08 63 1013.6
20260904181148 22 232 3.2 4.8 0.00 0.08 0.08 64 1013.7
20260904181110 22 119 3.2 4.8 0.00 0.08 0.08 62 1013.6
20260904181026 22 118 3.2 6.4 0.00 0.08 0.08 62 1013.6
20260904180908 22 105 3.2 9.7 0.00 0.08 0.08 62 1013.7
20260904180805 22 130 3.2 9.7 0.00 0.08 0.08 61 1013.7
20260904180757 22 131 3.2 9.7 0.00 0.08 0.08 63 1013.6
20260904180602 22 201 3.2 9.7 0.00 0.08 0.08 63 1013.6
20260904180501 22 124 3.2 9.7 0.00 0.08 0.08 63 1013.6
20260904180402 22 103 3.2 9.7 0.00 0.08 0.08 63 1013.7
20260904180300 22 103 3.2 9.7 0.00 0.08 0.08 63 1013.7
20260904180145 21 142 3.2 9.7 0.00 0.08 0.08 65 1013.7
20260904180058 21 121 1.6 9.7 0.00 0.08 0.08 65 1013.7
20260904175957 21 145 1.6 9.7 0.00 0.08 0.08 66 1013.7
20260904175855 21 113 3.2 8.0 0.00 0.08 0.08 66 1013.7
20260904175753 21 245 3.2 9.7 0.00 0.08 0.08 65 1013.7
20260904175649 21 235 3.2 9.7 0.00 0.08 0.08 67 1013.7
20260904175548 21 155 3.2 9.7 0.00 0.08 0.08 67 1013.7
20260904175447 21 117 3.2 9.7 0.00 0.08 0.08 68 1013.7
20260904175347 20 150 3.2 9.7 0.00 0.08 0.08 68 1013.7
20260904175247 20 134 1.6 9.7 0.00 0.08 0.08 68 1013.8
20260904175150 20 226 1.6 9.7 0.00 0.08 0.08 68 1013.7
20260904175045 20 141 1.6 9.7 0.00 0.08 0.08 68 1013.8
20260904174943 20 142 1.6 9.7 0.00 0.08 0.08 68 1013.8
20260904174844 20 149 1.6 9.7 0.00 0.08 0.08 68 1013.8
20260904174741 20 205 1.6 8.0 0.00 0.08 0.08 68 1013.8
20260904174704 20 225 1.6 8.0 0.00 0.08 0.08 69 1013.8
20260904174644 20 224 1.6 8.0 0.00 0.08 0.08 69 1013.8
20260904174540 20 131 1.6 8.0 0.00 0.08 0.08 68 1013.8
20260904174440 20 131 1.6 8.0 0.00 0.08 0.08 68 1013.8
20260904174338 20 120 1.6 8.0 0.00 0.08 0.08 68 1013.8
20260904174235 20 120 1.6 8.0 0.00 0.08 0.08 68 1013.7
20260904174136 20 88 1.6 8.0 0.00 0.08 0.08 68 1013.7
20260904174034 20 165 1.6 8.0 0.00 0.08 0.08 68 1013.8
20260904173931 20 165 1.6 8.0 0.00 0.08 0.08 69 1013.8
20260904173832 20 158 1.6 6.4 0.00 0.08 0.08 69 1013.7
20260904173729 20 150 1.6 6.4 0.00 0.08 0.08 70 1013.8
20260904173644 20 160 1.6 4.8 0.00 0.08 0.08 72 1013.8
20260904173630 20 143 1.6 4.8 0.00 0.08 0.08 72 1013.8
20260904173528 20 191 1.6 4.8 0.00 0.08 0.08 73 1013.8
20260904173427 19 208 1.6 4.8 0.00 0.08 0.08 73 1013.8
20260904173325 19 208 1.6 4.8 0.00 0.08 0.08 72 1013.8
20260904173223 19 233 3.2 4.8 0.00 0.08 0.08 73 1013.8
20260904173142 19 233 3.2 4.8 0.00 0.08 0.08 72 1013.8
20260904173117 19 231 3.2 4.8 0.00 0.08 0.08 72 1013.7
20260904173018 18 223 3.2 6.4 0.00 0.08 0.08 74 1013.7
20260904172918 18 228 3.2 6.4 0.00 0.08 0.08 74 1013.7
20260904172817 18 232 3.2 6.4 0.00 0.08 0.08 74 1013.8
20260904172716 18 231 3.2 6.4 0.00 0.08 0.08 73 1013.7
20260904172640 18 208 3.2 8.0 0.00 0.08 0.08 73 1013.7
20260904172612 18 228 4.8 8.0 0.00 0.08 0.08 73 1013.7
20260904172511 18 207 4.8 8.0 0.00 0.08 0.08 73 1013.7
20260904172412 18 225 4.8 8.0 0.00 0.08 0.08 73 1013.7
20260904172311 18 221 4.8 8.0 0.00 0.08 0.08 73 1013.7
20260904172211 18 234 4.8 8.0 0.00 0.08 0.08 73 1013.6
20260904172144 18 231 3.2 8.0 0.00 0.08 0.08 73 1013.6
20260904172107 18 229 3.2 8.0 0.00 0.08 0.08 73 1013.7
20260904172006 18 235 3.2 8.0 0.00 0.08 0.08 73 1013.6
20260904171906 19 139 3.2 8.0 0.00 0.08 0.08 73 1013.6
20260904171806 19 212 3.2 8.0 0.00 0.08 0.08 72 1013.6
20260904171705 19 253 3.2 8.0 0.00 0.08 0.08 72 1013.6
20260904171641 19 193 3.2 8.0 0.00 0.08 0.08 72 1013.6
20260904171602 19 236 1.6 8.0 0.00 0.08 0.08 72 1013.6
20260904171501 19 243 1.6 8.0 0.00 0.08 0.08 73 1013.6
20260904171407 20 183 1.6 4.8 0.00 0.08 0.08 71 1013.6
20260904171401 20 226 1.6 4.8 0.00 0.08 0.08 72 1013.6
20260904171301 20 226 1.6 4.8 0.00 0.08 0.08 72 1013.6
20260904171159 20 197 1.6 4.8 0.00 0.08 0.08 72 1013.6
20260904171058 20 226 1.6 4.8 0.00 0.08 0.08 71 1013.5
20260904170957 20 149 1.6 4.8 0.00 0.08 0.08 72 1013.6
20260904170858 20 149 1.6 6.4 0.00 0.08 0.08 72 1013.6
20260904170756 20 149 1.6 6.4 0.00 0.08 0.08 72 1013.5
20260904170656 20 150 1.6 6.4 0.00 0.08 0.08 72 1013.6
20260904170636 20 139 1.6 8.0 0.00 0.08 0.08 72 1013.6
20260904170555 20 122 3.2 8.0 0.00 0.08 0.08 73 1013.6
20260904170457 19 201 3.2 9.7 0.00 0.08 0.08 73 1013.6
20260904170356 19 184 3.2 9.7 0.00 0.08 0.08 74 1013.6
20260904170254 19 115 3.2 9.7 0.00 0.08 0.08 75 1013.5
20260904170133 19 115 3.2 9.7 0.00 0.08 0.08 73 1013.6
20260904170053 19 108 3.2 9.7 0.00 0.08 0.08 73 1013.6
20260904165954 19 115 3.2 9.7 0.00 0.08 0.08 73 1013.6
20260904165853 18 134 3.2 9.7 0.00 0.08 0.08 74 1013.6
20260904165752 18 160 3.2 9.7 0.00 0.08 0.08 74 1013.6
20260904165652 18 111 1.6 9.7 0.00 0.08 0.08 74 1013.5
20260904165631 18 106 1.6 9.7 0.00 0.08 0.08 74 1013.5
20260904165552 19 134 1.6 9.7 0.00 0.08 0.08 74 1013.6
20260904165453 19 139 1.6 6.4 0.00 0.08 0.08 75 1013.6
20260904165356 19 140 1.6 6.4 0.00 0.08 0.08 75 1013.5
20260904165351 19 229 1.6 6.4 0.00 0.08 0.08 74 1013.5
20260904165251 19 232 1.6 6.4 0.00 0.08 0.08 75 1013.5
20260904165242 19 139 1.6 6.4 0.00 0.08 0.08 75 1013.5
20260904165052 19 158 1.6 6.4 0.00 0.08 0.08 76 1013.5
20260904164951 18 158 1.6 8.0 0.00 0.08 0.08 76 1013.5
20260904164850 18 231 1.6 8.0 0.00 0.08 0.08 75 1013.5
20260904164750 18 230 1.6 8.0 0.00 0.08 0.08 76 1013.4
20260904164650 19 230 1.6 8.0 0.00 0.08 0.08 75 1013.5
20260904164625 19 231 1.6 8.0 0.00 0.08 0.08 75 1013.5
20260904164548 19 231 1.6 8.0 0.00 0.08 0.08 76 1013.4
20260904164445 19 231 1.6 8.0 0.00 0.08 0.08 76 1013.4
20260904164342 19 246 1.6 8.0 0.00 0.08 0.08 77 1013.4
20260904164240 18 246 3.2 9.7 0.00 0.08 0.08 77 1013.4
20260904164143 18 146 3.2 9.7 0.00 0.08 0.08 77 1013.4
20260904164119 18 155 3.2 9.7 0.00 0.08 0.08 77 1013.4
20260904164040 18 110 1.6 9.7 0.00 0.08 0.08 77 1013.4
20260904163939 18 155 1.6 9.7 0.00 0.08 0.08 78 1013.4
20260904163833 18 143 1.6 9.7 0.00 0.08 0.08 78 1013.4
20260904163812 17 129 1.6 6.4 0.00 0.08 0.08 80 1013.4
20260904163734 18 129 1.6 9.7 0.00 0.08 0.08 79 1013.4
20260904163707 18 129 3.2 9.7 0.00 0.08 0.08 79 1013.4
20260904163657 18 122 3.2 9.7 0.00 0.08 0.08 79 1013.4
20260904163534 18 109 3.2 9.7 0.00 0.08 0.08 79 1013.4
20260904163444 18 146 1.6 9.7 0.00 0.08 0.08 79 1013.4
20260904163330 18 135 1.6 9.7 0.00 0.08 0.08 80 1013.5
20260904163229 17 137 1.6 6.4 0.00 0.08 0.08 80 1013.5
20260904163217 17 128 1.6 6.4 0.00 0.08 0.08 80 1013.5
20260904163030 17 228 1.6 6.4 0.00 0.08 0.08 79 1013.4
20260904162927 17 242 1.6 6.4 0.00 0.08 0.08 80 1013.5
20260904162828 17 215 1.6 12.9 0.00 0.08 0.08 81 1013.3
20260904162824 17 150 1.6 6.4 0.00 0.08 0.08 80 1013.5
20260904162722 17 222 1.6 6.4 0.00 0.08 0.08 80 1013.4
20260904162711 17 148 1.6 12.9 0.00 0.08 0.08 81 1013.4
20260904162521 17 137 1.6 12.9 0.00 0.08 0.08 81 1013.3
20260904162422 17 153 1.6 12.9 0.00 0.08 0.08 81 1013.3
20260904162316 17 154 1.6 12.9 0.00 0.08 0.08 80 1013.3
20260904162216 17 154 1.6 12.9 0.00 0.08 0.08 80 1013.3
20260904162115 17 134 3.2 12.9 0.00 0.08 0.08 79 1013.3
20260904162055 17 134 3.2 12.9 0.00 0.08 0.08 79 1013.3
20260904162016 17 236 3.2 12.9 0.00 0.08 0.08 80 1013.3
20260904161915 17 238 3.2 12.9 0.00 0.08 0.08 79 1013.3
20260904161818 18 231 3.2 12.9 0.00 0.08 0.08 80 1013.3
20260904161810 18 194 3.2 12.9 0.00 0.08 0.08 78 1013.3
20260904161709 18 232 3.2 12.9 0.00 0.08 0.08 78 1013.3
20260904161700 18 235 3.2 12.9 0.00 0.08 0.08 79 1013.3
20260904161510 18 226 3.2 12.9 0.00 0.08 0.08 80 1013.2
20260904161409 18 226 3.2 12.9 0.00 0.08 0.08 81 1013.3
20260904161304 18 226 3.2 12.9 0.00 0.08 0.08 80 1013.2
20260904161205 18 225 3.2 12.9 0.00 0.08 0.08 80 1013.3
20260904161103 18 190 4.8 12.9 0.00 0.08 0.08 80 1013.2
20260904161043 18 248 4.8 12.9 0.00 0.08 0.08 80 1013.2
20260904161004 18 207 3.2 12.9 0.00 0.08 0.08 81 1013.2
20260904160903 17 167 3.2 9.7 0.00 0.08 0.08 81 1013.2
20260904160800 17 200 3.2 8.0 0.00 0.08 0.08 81 1013.2
20260904160701 17 143 3.2 8.0 0.00 0.08 0.08 81 1013.1
20260904160600 17 168 3.2 8.0 0.00 0.08 0.08 81 1013.2
20260904160537 17 210 3.2 8.0 0.00 0.08 0.08 82 1013.2
20260904160459 17 124 3.2 8.0 0.00 0.08 0.08 82 1013.2
20260904160357 17 129 3.2 8.0 0.00 0.08 0.08 83 1013.2
20260904160252 17 152 3.2 8.0 0.00 0.08 0.08 83 1013.2
20260904160152 17 139 3.2 8.0 0.00 0.08 0.08 83 1013.2
20260904160053 17 144 3.2 8.0 0.00 0.08 0.08 83 1013.2
20260904160043 17 137 3.2 8.0 0.00 0.08 0.08 83 1013.2
20260904155951 17 136 3.2 8.0 0.00 0.08 0.08 83 1013.2
20260904155852 17 177 4.8 8.0 0.00 0.08 0.08 83 1013.2
20260904155746 17 179 4.8 9.7 0.00 0.08 0.08 83 1013.2
20260904155647 17 225 3.2 9.7 0.00 0.08 0.08 84 1013.3
20260904155545 17 195 4.8 9.7 0.00 0.08 0.08 85 1013.2
20260904155525 17 205 4.8 9.7 0.00 0.08 0.08 85 1013.2
20260904155446 17 212 4.8 9.7 0.00 0.08 0.08 85 1013.2
20260904155346 17 211 4.8 9.7 0.00 0.08 0.08 84 1013.2
20260904155249 16 242 4.8 9.7 0.00 0.08 0.08 84 1013.2
20260904155241 17 211 4.8 9.7 0.00 0.08 0.08 84 1013.3
20260904155144 17 229 4.8 9.7 0.00 0.08 0.08 84 1013.2
20260904155129 16 239 4.8 9.7 0.00 0.08 0.08 84 1013.2
20260904154940 16 217 4.8 9.7 0.00 0.08 0.08 84 1013.2
20260904154843 16 215 4.8 9.7 0.00 0.08 0.08 84 1013.2
20260904154735 16 236 4.8 9.7 0.00 0.08 0.08 85 1013.2
20260904154639 16 174 4.8 9.7 0.00 0.08 0.08 85 1013.2
20260904154534 16 224 4.8 9.7 0.00 0.08 0.08 84 1013.2
20260904154512 16 214 4.8 9.7 0.00 0.08 0.08 85 1013.2
20260904154434 16 154 3.2 8.0 0.00 0.08 0.08 85 1013.2
20260904154333 16 129 4.8 8.0 0.00 0.08 0.08 84 1013.2
20260904154229 16 238 4.8 9.7 0.00 0.08 0.08 85 1013.2
20260904154128 16 205 3.2 9.7 0.00 0.08 0.08 84 1013.2
20260904154028 16 190 3.2 9.7 0.00 0.08 0.08 84 1013.2
20260904154006 16 217 3.2 9.7 0.00 0.08 0.08 84 1013.2
20260904153927 16 224 3.2 9.7 0.00 0.08 0.08 84 1013.2
20260904153828 16 175 3.2 9.7 0.00 0.08 0.08 85 1013.1
20260904153723 16 152 3.2 9.7 0.00 0.08 0.08 85 1013.1
20260904153621 16 117 3.2 9.7 0.00 0.08 0.08 85 1013.2
20260904153522 16 134 3.2 9.7 0.00 0.08 0.08 85 1013.2
20260904153501 16 167 3.2 9.7 0.00 0.08 0.08 84 1013.2
20260904153422 16 188 3.2 9.7 0.00 0.08 0.08 84 1013.2
20260904153321 16 210 3.2 9.7 0.00 0.08 0.08 85 1013.1
20260904153216 16 260 3.2 9.7 0.00 0.08 0.08 86 1013.2
20260904153115 16 129 3.2 9.7 0.00 0.08 0.08 86 1013.1
20260904153016 16 143 3.2 9.7 0.00 0.08 0.08 86 1013.1
20260904152954 16 135 3.2 9.7 0.00 0.08 0.08 86 1013.1
20260904152916 16 136 3.2 9.7 0.00 0.08 0.08 86 1013.1
20260904152815 16 226 4.8 9.7 0.00 0.08 0.08 85 1013.1
20260904152712 16 233 4.8 9.7 0.00 0.08 0.08 85 1013.1
20260904152610 16 183 4.8 9.7 0.00 0.08 0.08 85 1013.1
20260904152513 16 197 4.8 9.7 0.00 0.08 0.08 86 1013.1
20260904152503 16 159 4.8 11.3 0.00 0.08 0.08 86 1013.1
20260904152410 16 113 4.8 11.3 0.00 0.08 0.08 86 1013.1
20260904152309 16 134 4.8 11.3 0.00 0.08 0.08 86 1013.1
20260904152205 16 163 4.8 11.3 0.00 0.08 0.08 86 1013.0
20260904152104 16 212 4.8 11.3 0.00 0.08 0.08 86 1013.0
20260904152003 16 122 4.8 11.3 0.00 0.08 0.08 86 1013.0
20260904151943 16 225 4.8 11.3 0.00 0.08 0.08 86 1013.0
20260904151904 16 225 4.8 11.3 0.00 0.08 0.08 86 1013.0
20260904151803 16 129 3.2 11.3 0.00 0.08 0.08 86 1013.1
20260904151703 16 225 3.2 11.3 0.00 0.08 0.08 86 1013.1
20260904151601 16 208 3.2 11.3 0.00 0.08 0.08 86 1013.1
20260904151501 16 95 3.2 11.3 0.00 0.08 0.08 86 1013.1
20260904151436 16 190 3.2 9.7 0.00 0.08 0.08 86 1013.1
20260904151400 16 203 3.2 9.7 0.00 0.08 0.08 87 1013.1
20260904151258 16 226 3.2 9.7 0.00 0.08 0.08 86 1013.1
20260904151152 16 129 3.2 6.4 0.00 0.08 0.08 87 1013.1
20260904151051 16 224 3.2 6.4 0.00 0.08 0.08 87 1013.1
20260904150952 16 217 3.2 6.4 0.00 0.08 0.08 87 1013.2
20260904150931 16 149 3.2 6.4 0.00 0.08 0.08 87 1013.2
20260904150852 16 141 3.2 6.4 0.00 0.08 0.08 87 1013.1
20260904150751 16 194 3.2 6.4 0.00 0.08 0.08 87 1013.1
20260904150652 16 183 3.2 6.4 0.00 0.08 0.08 87 1013.1
20260904150549 16 231 3.2 9.7 0.00 0.08 0.08 87 1013.1
20260904150448 16 211 3.2 9.7 0.00 0.08 0.08 87 1013.1
20260904150427 16 215 3.2 9.7 0.00 0.08 0.08 87 1013.1
20260904150348 16 221 3.2 9.7 0.00 0.08 0.08 87 1013.0
20260904150246 16 210 3.2 9.7 0.00 0.08 0.08 88 1013.1
20260904150143 16 148 3.2 9.7 0.00 0.08 0.08 88 1013.0
20260904150040 16 149 3.2 9.7 0.00 0.08 0.08 88 1013.1
20260904145939 16 160 3.2 9.7 0.00 0.08 0.08 88 1013.0
20260904145919 16 149 3.2 9.7 0.00 0.08 0.08 88 1013.0
20260904145841 16 158 3.2 9.7 0.00 0.08 0.08 88 1013.0
20260904145740 16 218 3.2 9.7 0.00 0.08 0.08 88 1013.1
20260904145634 16 229 1.6 9.7 0.00 0.08 0.08 88 1013.0
20260904145533 16 231 1.6 8.0 0.00 0.08 0.08 89 1013.0
20260904145412 16 143 1.6 4.8 0.00 0.08 0.08 90 1013.0
20260904145333 16 144 1.6 4.8 0.00 0.08 0.08 90 1013.0
20260904145234 15 104 1.6 4.8 0.00 0.08 0.08 90 1013.0
20260904145129 15 135 1.6 4.8 0.00 0.08 0.08 90 1013.0
20260904145027 15 138 0.0 4.8 0.00 0.08 0.08 90 1013.0
20260904144927 15 138 1.6 4.8 0.00 0.08 0.08 90 1013.0
20260904144909 15 138 0.0 4.8 0.00 0.08 0.08 90 1013.0
20260904144827 15 135 0.0 4.8 0.00 0.08 0.08 91 1013.0
20260904144728 15 139 0.0 4.8 0.00 0.08 0.08 91 1013.0
20260904144624 15 139 1.6 4.8 0.00 0.08 0.08 90 1013.0
20260904144522 15 138 1.6 4.8 0.00 0.08 0.08 90 1013.0
20260904144422 15 133 1.6 4.8 0.00 0.08 0.08 90 1013.0
20260904144401 15 186 1.6 4.8 0.00 0.08 0.08 90 1013.0
20260904144321 15 211 1.6 6.4 0.00 0.08 0.08 91 1013.0
20260904144222 15 186 1.6 6.4 0.00 0.08 0.08 91 1012.9
20260904144125 15 235 1.6 6.4 0.00 0.08 0.08 91 1012.9
20260904144118 15 186 1.6 6.4 0.00 0.08 0.08 90 1012.9
20260904144015 15 188 1.6 6.4 0.00 0.08 0.08 91 1012.9
20260904144005 15 196 1.6 6.4 0.00 0.08 0.08 91 1012.9
20260904143816 15 235 1.6 6.4 0.00 0.08 0.08 90 1012.9
20260904143715 15 225 1.6 6.4 0.00 0.08 0.08 90 1012.9
20260904143624 15 236 0.0 6.4 0.00 0.08 0.08 90 1012.8
20260904143612 15 203 0.0 6.4 0.00 0.08 0.08 90 1012.9
20260904143510 15 236 0.0 6.4 0.00 0.08 0.08 91 1012.8
20260904143410 15 236 0.0 6.4 0.00 0.08 0.08 90 1012.8
20260904143310 15 245 0.0 3.2 0.00 0.08 0.08 90 1012.8
20260904143210 15 190 0.0 3.2 0.00 0.08 0.08 90 1012.8
20260904143110 15 186 0.0 3.2 0.00 0.08 0.08 90 1012.8
20260904143008 15 186 0.0 3.2 0.00 0.08 0.08 90 1012.8
20260904142907 15 186 0.0 3.2 0.00 0.08 0.08 90 1012.7
20260904142856 15 186 0.0 3.2 0.00 0.08 0.08 90 1012.7
20260904142805 15 186 0.0 3.2 0.00 0.08 0.08 90 1012.7
20260904142705 15 186 1.6 3.2 0.00 0.08 0.08 90 1012.7
20260904142558 15 186 1.6 3.2 0.00 0.08 0.08 90 1012.7
20260904142458 15 186 1.6 3.2 0.00 0.08 0.08 90 1012.6
20260904142357 15 186 1.6 3.2 0.00 0.08 0.08 90 1012.6
20260904142337 15 211 1.6 3.2 0.00 0.08 0.08 90 1012.6
20260904142257 15 211 1.6 3.2 0.00 0.08 0.08 90 1012.6
20260904142159 15 136 1.6 9.7 0.00 0.08 0.08 90 1012.5
20260904142055 15 136 1.6 11.3 0.00 0.08 0.08 90 1012.5
20260904141955 15 134 1.6 11.3 0.00 0.08 0.08 90 1012.5
20260904141831 15 134 3.2 11.3 0.00 0.08 0.08 90 1012.5
20260904141753 15 134 3.2 11.3 0.00 0.08 0.08 90 1012.4
20260904141652 15 129 3.2 11.3 0.00 0.08 0.08 90 1012.4
20260904141547 15 143 3.2 11.3 0.00 0.08 0.08 90 1012.4
20260904141448 15 258 3.2 11.3 0.00 0.08 0.08 90 1012.4
20260904141348 15 193 3.2 11.3 0.00 0.08 0.08 90 1012.4
20260904141326 15 155 3.2 11.3 0.00 0.08 0.08 90 1012.4
20260904141311 15 231 3.2 8.0 0.00 0.08 0.08 90 1012.3
20260904141248 15 120 3.2 11.3 0.00 0.08 0.08 90 1012.4
20260904141158 15 222 3.2 8.0 0.00 0.08 0.08 90 1012.4
20260904141040 15 131 3.2 8.0 0.00 0.08 0.08 90 1012.4
20260904140940 15 222 3.2 8.0 0.00 0.08 0.08 90 1012.4
20260904140931 15 193 3.2 8.0 0.00 0.08 0.08 90 1012.3
20260904140804 15 216 1.6 6.4 0.00 0.08 0.08 90 1012.3
20260904140740 15 207 3.2 8.0 0.00 0.08 0.08 90 1012.3
20260904140650 15 192 3.2 8.0 0.00 0.08 0.08 90 1012.3
20260904140536 15 231 3.2 8.0 0.00 0.08 0.08 90 1012.3
20260904140435 15 210 1.6 6.4 0.00 0.08 0.08 90 1012.2
20260904140423 15 215 1.6 6.4 0.00 0.08 0.08 90 1012.2
20260904140237 15 193 1.6 6.4 0.00 0.08 0.08 90 1012.3
20260904140133 15 200 1.6 4.8 0.00 0.08 0.08 90 1012.2
20260904140032 15 211 0.0 4.8 0.00 0.08 0.08 90 1012.3
20260904135932 15 179 0.0 3.2 0.00 0.08 0.08 90 1012.2
20260904135807 15 190 0.0 3.2 0.00 0.08 0.08 90 1012.3
20260904135730 15 190 0.0 4.8 0.00 0.08 0.08 90 1012.3
20260904135627 15 190 1.6 4.8 0.00 0.08 0.08 90 1012.3
20260904135522 15 190 0.0 4.8 0.00 0.08 0.08 90 1012.3
20260904135422 15 190 0.0 4.8 0.00 0.08 0.08 90 1012.3
20260904135321 15 190 1.6 4.8 0.00 0.08 0.08 89 1012.2
20260904135300 15 190 1.6 4.8 0.00 0.08 0.08 89 1012.2
20260904135223 15 190 1.6 4.8 0.00 0.08 0.08 89 1012.2
20260904135121 15 190 1.6 4.8 0.00 0.08 0.08 89 1012.2
20260904135022 15 190 1.6 4.8 0.00 0.08 0.08 89 1012.2
20260904134919 15 190 1.6 4.8 0.00 0.08 0.08 89 1012.2
20260904134820 15 190 1.6 4.8 0.00 0.08 0.08 89 1012.2
20260904134754 15 190 0.0 4.8 0.00 0.08 0.08 89 1012.2
20260904134718 15 191 0.0 4.8 0.00 0.08 0.08 89 1012.2
20260904134615 15 225 1.6 4.8 0.00 0.08 0.08 89 1012.1
20260904134509 15 225 1.6 4.8 0.00 0.08 0.08 89 1012.2
20260904134411 15 225 1.6 4.8 0.00 0.08 0.08 89 1012.2
20260904134310 15 226 1.6 4.8 0.00 0.08 0.08 89 1012.1
20260904134249 15 226 1.6 4.8 0.00 0.08 0.08 89 1012.1
20260904134210 15 226 1.6 4.8 0.00 0.08 0.08 89 1012.2
20260904134110 15 211 1.6 4.8 0.00 0.08 0.08 89 1012.1
20260904134005 15 136 1.6 4.8 0.00 0.08 0.08 89 1012.1
20260904133903 15 136 1.6 4.8 0.00 0.08 0.08 89 1012.1
20260904133803 15 136 3.2 8.0 0.00 0.08 0.08 89 1012.1
20260904133747 15 135 3.2 8.0 0.00 0.08 0.08 89 1012.1
20260904133703 15 136 1.6 8.0 0.00 0.08 0.08 89 1012.1
20260904133559 15 197 1.6 8.0 0.00 0.08 0.08 89 1012.0
20260904133456 15 229 1.6 8.0 0.00 0.08 0.08 89 1012.0
20260904133355 15 238 1.6 8.0 0.00 0.08 0.08 89 1012.0
20260904133232 15 147 1.6 8.0 0.00 0.08 0.08 88 1012.0
20260904133223 15 241 3.2 11.3 0.00 0.08 0.08 88 1011.9
20260904133156 15 146 1.6 8.0 0.00 0.08 0.08 88 1011.9
20260904133107 15 201 1.6 8.0 0.00 0.08 0.08 88 1012.0
20260904132951 15 239 3.2 8.0 0.00 0.08 0.08 88 1012.0
20260904132851 15 239 3.2 11.3 0.00 0.08 0.08 88 1012.0
20260904132836 15 207 3.2 11.3 0.00 0.08 0.08 88 1011.9
20260904132651 15 242 3.2 11.3 0.00 0.08 0.08 88 1012.0
20260904132547 15 242 3.2 11.3 0.00 0.08 0.08 88 1011.9
20260904132446 15 242 3.2 11.3 0.00 0.08 0.08 88 1011.9
20260904132345 15 212 3.2 11.3 0.00 0.08 0.08 88 1011.9
20260904132220 15 212 3.2 11.3 0.00 0.08 0.08 88 1011.8
20260904132145 15 231 3.2 11.3 0.00 0.08 0.08 88 1011.9
20260904132041 15 259 3.2 11.3 0.00 0.08 0.08 88 1011.8
20260904131940 15 229 3.2 11.3 0.00 0.08 0.08 88 1011.8
20260904131840 15 144 3.2 8.0 0.00 0.08 0.08 88 1011.8
20260904131739 16 222 3.2 8.0 0.00 0.08 0.08 88 1011.8
20260904131727 16 212 3.2 8.0 0.00 0.08 0.08 88 1011.8
20260904131638 16 236 3.2 8.0 0.00 0.08 0.08 88 1011.8
20260904131540 16 239 3.2 8.0 0.00 0.08 0.08 88 1011.8
20260904131429 16 221 3.2 8.0 0.00 0.08 0.08 88 1011.8
20260904131329 16 242 3.2 8.0 0.00 0.08 0.08 88 1011.8
20260904131231 16 238 3.2 8.0 0.00 0.08 0.08 88 1011.8
20260904131209 16 229 3.2 8.0 0.00 0.08 0.08 88 1011.8
20260904131130 16 231 3.2 8.0 0.00 0.08 0.08 88 1011.8
20260904131030 16 233 3.2 8.0 0.00 0.08 0.08 88 1011.8
20260904130926 16 203 3.2 6.4 0.00 0.08 0.08 89 1011.8
20260904130826 16 193 3.2 6.4 0.00 0.08 0.08 89 1011.7
20260904130726 16 155 1.6 6.4 0.00 0.08 0.08 89 1011.7
20260904130703 16 200 1.6 6.4 0.00 0.08 0.08 89 1011.7
20260904130625 16 212 1.6 6.4 0.00 0.08 0.08 89 1011.7
20260904130524 16 198 1.6 6.4 0.00 0.08 0.08 88 1011.7
20260904130417 16 226 1.6 6.4 0.00 0.08 0.08 88 1011.7
20260904130318 16 226 1.6 6.4 0.00 0.08 0.08 88 1011.7
20260904130220 16 228 1.6 6.4 0.00 0.08 0.08 88 1011.7
20260904130209 16 228 3.2 6.4 0.00 0.08 0.08 88 1011.7
20260904130117 16 229 3.2 6.4 0.00 0.08 0.08 88 1011.7
20260904130019 16 208 3.2 6.4 0.00 0.08 0.08 88 1011.7
20260904125911 16 210 3.2 9.7 0.00 0.08 0.08 88 1011.7
20260904125812 16 129 3.2 9.7 0.00 0.08 0.08 88 1011.7
20260904125712 16 138 4.8 9.7 0.00 0.08 0.08 88 1011.7
20260904125651 16 138 4.8 9.7 0.00 0.08 0.08 88 1011.7
20260904125613 16 137 4.8 14.5 0.00 0.08 0.08 88 1011.7
20260904125511 16 221 4.8 14.5 0.00 0.08 0.08 88 1011.7
20260904125412 16 228 4.8 14.5 0.00 0.08 0.08 88 1011.7
20260904125310 16 228 4.8 14.5 0.00 0.08 0.08 88 1011.8
20260904125214 16 232 4.8 14.5 0.00 0.08 0.08 88 1011.8
20260904125145 16 238 4.8 14.5 0.00 0.08 0.08 88 1011.8
20260904125108 16 162 4.8 14.5 0.00 0.08 0.08 88 1011.7
20260904125006 16 194 3.2 14.5 0.00 0.08 0.08 88 1011.7
20260904124859 16 231 3.2 14.5 0.00 0.08 0.08 88 1011.7
20260904124800 16 231 3.2 14.5 0.00 0.08 0.08 88 1011.7
20260904124700 16 248 3.2 14.5 0.00 0.08 0.08 88 1011.7
20260904124638 16 258 3.2 14.5 0.00 0.08 0.08 88 1011.7
20260904124600 16 231 3.2 8.0 0.00 0.08 0.08 88 1011.7
20260904124459 16 198 1.6 8.0 0.00 0.08 0.08 89 1011.7
20260904124355 16 228 1.6 6.4 0.00 0.08 0.08 89 1011.6
20260904124256 16 269 3.2 6.4 0.00 0.08 0.08 89 1011.6
20260904124156 16 212 3.2 11.3 0.00 0.08 0.08 89 1011.6
20260904124133 16 225 3.2 11.3 0.00 0.08 0.08 89 1011.6
20260904124056 16 222 3.2 11.3 0.00 0.08 0.08 89 1011.7
20260904123954 16 217 3.2 11.3 0.00 0.08 0.08 89 1011.6
20260904123852 16 219 3.2 11.3 0.00 0.08 0.08 89 1011.6
20260904123752 16 160 3.2 11.3 0.00 0.08 0.08 89 1011.6
20260904123627 16 190 3.2 11.3 0.00 0.08 0.08 89 1011.6
20260904123550 16 195 3.2 11.3 0.00 0.08 0.08 89 1011.6
20260904123447 16 218 3.2 11.3 0.00 0.08 0.08 89 1011.6
20260904123348 16 205 3.2 11.3 0.00 0.08 0.08 89 1011.6
20260904123246 16 214 3.2 11.3 0.00 0.08 0.08 89 1011.6
20260904123146 16 205 3.2 9.7 0.00 0.08 0.08 89 1011.6
20260904123120 16 225 3.2 9.7 0.00 0.08 0.08 89 1011.6
20260904123043 16 233 3.2 9.7 0.00 0.08 0.08 89 1011.6
20260904122941 16 136 3.2 9.7 0.00 0.08 0.08 89 1011.6
20260904122837 16 214 3.2 9.7 0.00 0.08 0.08 89 1011.5
20260904122735 16 193 3.2 9.7 0.00 0.08 0.08 89 1011.5
20260904122639 16 235 3.2 9.7 0.00 0.08 0.08 89 1011.5
20260904122613 16 236 3.2 9.7 0.00 0.08 0.08 89 1011.6
20260904122536 16 235 3.2 9.7 0.00 0.08 0.08 89 1011.6
20260904122435 16 235 3.2 9.7 0.00 0.08 0.08 89 1011.5
20260904122329 16 135 3.2 9.7 0.00 0.08 0.08 89 1011.5
20260904122229 16 242 3.2 9.7 0.00 0.08 0.08 89 1011.5
20260904122129 16 226 3.2 9.7 0.00 0.08 0.08 89 1011.5
20260904122108 16 259 3.2 9.7 0.00 0.08 0.08 89 1011.5
20260904122029 16 198 3.2 9.7 0.00 0.08 0.08 89 1011.5
20260904121929 16 205 3.2 9.7 0.00 0.08 0.08 89 1011.5
20260904121833 16 243 3.2 11.3 0.00 0.08 0.08 89 1011.5
20260904121728 16 226 3.2 11.3 0.00 0.08 0.08 89 1011.5
20260904121627 16 217 3.2 11.3 0.00 0.08 0.08 89 1011.5
20260904121602 16 166 4.8 11.3 0.00 0.08 0.08 89 1011.5
20260904121525 16 166 4.8 11.3 0.00 0.08 0.08 89 1011.5
20260904121423 16 211 3.2 11.3 0.00 0.08 0.08 89 1011.5
20260904121327 16 252 3.2 11.3 0.00 0.08 0.08 89 1011.5
20260904121320 16 212 3.2 11.3 0.00 0.08 0.08 89 1011.5
20260904121220 16 224 3.2 11.3 0.00 0.08 0.08 89 1011.5
20260904121212 16 145 3.2 11.3 0.00 0.08 0.08 89 1011.5
20260904121018 16 229 3.2 11.3 0.00 0.08 0.08 90 1011.5
20260904120917 16 214 3.2 8.0 0.00 0.08 0.08 90 1011.5
20260904120814 16 214 3.2 8.0 0.00 0.08 0.08 90 1011.5
20260904120712 16 161 3.2 8.0 0.00 0.08 0.08 89 1011.5
20260904120612 16 169 3.2 6.4 0.00 0.08 0.08 90 1011.5
20260904120550 16 210 3.2 6.4 0.00 0.08 0.08 90 1011.5
20260904120512 16 193 3.2 11.3 0.00 0.08 0.08 89 1011.4
20260904120411 16 219 3.2 11.3 0.00 0.08 0.08 89 1011.4
20260904120311 16 219 3.2 11.3 0.00 0.08 0.08 89 1011.5
20260904120211 16 255 3.2 11.3 0.00 0.08 0.08 90 1011.4
20260904120108 16 238 3.2 11.3 0.00 0.08 0.08 90 1011.4
20260904120057 16 211 3.2 11.3 0.00 0.08 0.08 90 1011.4
20260904120008 16 212 4.8 11.3 0.00 0.08 0.08 90 1011.4
20260904115905 16 148 4.8 11.3 0.00 0.08 0.08 89 1011.4
20260904115801 16 242 4.8 11.3 0.00 0.08 0.08 89 1011.4
20260904115700 16 211 4.8 11.3 0.00 0.08 0.08 89 1011.4
20260904115559 16 260 4.8 11.3 0.00 0.08 0.08 89 1011.4
20260904115539 16 242 4.8 11.3 0.00 0.08 0.08 89 1011.4
20260904115500 16 241 4.8 9.7 0.00 0.08 0.08 90 1011.4
20260904115359 16 199 4.8 9.7 0.00 0.08 0.08 90 1011.4
20260904115254 16 236 4.8 8.0 0.00 0.08 0.08 90 1011.4
20260904115154 16 233 4.8 8.0 0.00 0.08 0.08 90 1011.4
20260904115054 16 231 4.8 9.7 0.00 0.08 0.08 90 1011.4
20260904115032 16 243 4.8 9.7 0.00 0.08 0.08 90 1011.4
20260904114953 16 233 3.2 9.7 0.00 0.08 0.08 90 1011.4
20260904114854 16 192 3.2 9.7 0.00 0.08 0.08 90 1011.4
20260904114750 16 169 3.2 9.7 0.00 0.08 0.08 90 1011.4
20260904114649 16 217 3.2 9.7 0.00 0.08 0.08 91 1011.5
20260904114548 16 179 3.2 9.7 0.00 0.08 0.08 90 1011.5
20260904114527 16 150 3.2 9.7 0.00 0.08 0.08 90 1011.5
20260904114448 16 134 3.2 9.7 0.00 0.08 0.08 90 1011.5
20260904114347 16 226 3.2 9.7 0.00 0.08 0.08 90 1011.4
20260904114246 16 219 1.6 6.4 0.00 0.08 0.08 91 1011.5
20260904114241 16 233 3.2 9.7 0.00 0.08 0.08 90 1011.5
20260904114142 16 250 1.6 9.7 0.00 0.08 0.08 91 1011.5
20260904114131 16 207 1.6 8.0 0.00 0.08 0.08 91 1011.5
20260904113941 16 222 1.6 6.4 0.00 0.08 0.08 91 1011.5
20260904113841 16 218 1.6 6.4 0.00 0.08 0.08 91 1011.4
20260904113741 16 238 1.6 4.8 0.00 0.08 0.08 91 1011.4
20260904113737 16 236 1.6 6.4 0.00 0.08 0.08 91 1011.4
20260904113637 16 237 1.6 6.4 0.00 0.08 0.08 90 1011.4
20260904113625 16 240 1.6 4.8 0.00 0.08 0.08 91 1011.4
20260904113436 16 233 0.0 4.8 0.00 0.08 0.08 91 1011.4
20260904113336 16 232 0.0 3.2 0.00 0.08 0.08 91 1011.4
20260904113232 16 232 0.0 3.2 0.00 0.08 0.08 91 1011.4
20260904113130 16 232 1.6 6.4 0.00 0.08 0.08 91 1011.4
20260904113008 16 215 1.6 6.4 0.00 0.08 0.08 91 1011.4
20260904112929 16 216 1.6 6.4 0.00 0.08 0.08 91 1011.4
20260904112834 16 210 1.6 6.4 0.00 0.08 0.08 91 1011.4
20260904112736 16 172 3.2 9.7 0.00 0.08 0.08 91 1011.3
20260904112730 16 210 1.6 8.0 0.00 0.08 0.08 91 1011.3
20260904112627 16 210 1.6 8.0 0.00 0.08 0.08 91 1011.3
20260904112528 16 172 3.2 9.7 0.00 0.08 0.08 91 1011.3
20260904112426 16 172 3.2 9.7 0.00 0.08 0.08 91 1011.3
20260904112324 16 172 3.2 9.7 0.00 0.08 0.08 91 1011.3
20260904112219 16 190 3.2 9.7 0.00 0.08 0.08 91 1011.4
20260904112118 16 211 3.2 9.7 0.00 0.08 0.08 91 1011.3
20260904112018 16 228 3.2 9.7 0.00 0.08 0.08 91 1011.3
20260904111956 16 248 3.2 9.7 0.00 0.08 0.08 91 1011.4
20260904111918 16 185 3.2 9.7 0.00 0.08 0.08 91 1011.3
20260904111818 16 188 3.2 9.7 0.00 0.08 0.08 91 1011.3
20260904111715 16 239 3.2 9.7 0.00 0.08 0.08 91 1011.3
20260904111611 16 239 3.2 9.7 0.00 0.08 0.08 91 1011.3
20260904111511 16 229 3.2 8.0 0.00 0.08 0.08 91 1011.3
20260904111455 16 229 3.2 8.0 0.00 0.08 0.08 91 1011.3
20260904111411 16 229 3.2 8.0 0.00 0.08 0.08 91 1011.3
20260904111311 16 217 3.2 8.0 0.00 0.08 0.08 91 1011.3
20260904111207 16 230 3.2 8.0 0.00 0.08 0.08 91 1011.3
20260904111105 16 232 3.2 8.0 0.00 0.08 0.08 91 1011.3
20260904111006 16 205 3.2 6.4 0.00 0.08 0.08 91 1011.3
20260904110955 16 226 3.2 6.4 0.00 0.08 0.08 91 1011.3
20260904110906 16 199 3.2 6.4 0.00 0.08 0.08 91 1011.3
20260904110805 16 222 3.2 9.7 0.00 0.08 0.08 91 1011.3
20260904110704 16 228 3.2 9.7 0.00 0.08 0.08 91 1011.2
20260904110600 16 256 3.2 9.7 0.00 0.08 0.08 91 1011.3
20260904110502 16 148 3.2 9.7 0.00 0.08 0.08 91 1011.2
20260904110452 16 167 3.2 9.7 0.00 0.08 0.08 91 1011.2
20260904110400 16 181 3.2 9.7 0.00 0.08 0.08 91 1011.2
20260904110259 16 222 4.8 9.7 0.00 0.08 0.08 91 1011.2
20260904110156 16 236 4.8 9.7 0.00 0.08 0.08 91 1011.2
20260904110054 16 233 4.8 9.7 0.00 0.08 0.08 91 1011.1
20260904105959 16 188 4.8 9.7 0.00 0.08 0.08 91 1011.2
20260904105953 16 187 4.8 9.7 0.00 0.08 0.08 91 1011.2
20260904105853 16 243 3.2 9.7 0.00 0.08 0.08 92 1011.2
20260904105753 16 233 3.2 6.4 0.00 0.08 0.08 92 1011.2
20260904105655 16 212 3.2 6.4 0.00 0.08 0.08 92 1011.2
20260904105551 16 226 3.2 6.4 0.00 0.08 0.08 92 1011.1
20260904105455 16 197 3.2 6.4 0.00 0.08 0.08 92 1011.1
20260904105449 16 203 3.2 6.4 0.00 0.08 0.08 92 1011.1
20260904105350 16 240 3.2 6.4 0.00 0.08 0.08 92 1011.2
20260904105248 16 217 3.2 8.0 0.00 0.08 0.08 92 1011.1
20260904105145 16 163 3.2 8.0 0.00 0.08 0.08 92 1011.1
20260904105042 16 146 1.6 8.0 0.00 0.08 0.08 92 1011.1
20260904104950 16 214 3.2 8.0 0.00 0.08 0.08 92 1011.1
20260904104941 16 194 3.2 8.0 0.00 0.08 0.08 92 1011.1
20260904104842 16 218 3.2 8.0 0.00 0.08 0.08 92 1011.1
20260904104741 16 236 3.2 8.0 0.00 0.08 0.08 92 1011.1
20260904104637 16 221 3.2 8.0 0.00 0.08 0.08 92 1011.1
20260904104536 16 166 3.2 8.0 0.00 0.08 0.08 92 1011.2
20260904104453 16 235 3.2 8.0 0.00 0.08 0.08 92 1011.1
20260904104435 16 233 3.2 8.0 0.00 0.08 0.08 92 1011.1
20260904104336 16 226 3.2 9.7 0.00 0.08 0.08 92 1011.1
20260904104235 16 236 3.2 9.7 0.00 0.08 0.08 92 1011.1
20260904104216 16 219 3.2 9.7 0.00 0.08 0.08 92 1011.1
20260904104137 16 232 4.8 9.7 0.00 0.08 0.08 92 1011.1
20260904104101 16 222 4.8 9.7 0.00 0.08 0.08 92 1011.1
20260904103934 16 215 3.2 9.7 0.00 0.08 0.08 92 1011.1
20260904103832 16 197 3.2 9.7 0.00 0.08 0.08 92 1011.1
20260904103730 16 233 3.2 9.7 0.00 0.08 0.08 92 1011.1
20260904103624 16 188 3.2 9.7 0.00 0.08 0.08 92 1011.1
20260904103523 16 238 4.8 12.9 0.00 0.08 0.08 92 1011.0
20260904103449 16 233 3.2 12.9 0.00 0.08 0.08 92 1011.1
20260904103424 16 232 3.2 12.9 0.00 0.08 0.08 92 1011.1
20260904103324 16 222 3.2 12.9 0.00 0.08 0.08 92 1011.1
20260904103223 16 214 3.2 12.9 0.00 0.08 0.08 92 1011.1
20260904103118 16 233 3.2 12.9 0.00 0.08 0.08 92 1011.0
20260904103017 16 238 3.2 12.9 0.00 0.08 0.08 92 1011.1
20260904102948 16 222 3.2 12.9 0.00 0.08 0.08 92 1011.1
20260904102917 16 239 3.2 12.9 0.00 0.08 0.08 92 1011.1
20260904102818 16 232 3.2 12.9 0.00 0.08 0.08 92 1011.1
20260904102720 16 238 3.2 12.9 0.00 0.08 0.08 92 1011.1
20260904102711 15 199 3.2 8.0 0.00 0.08 0.08 92 1011.0
20260904102614 16 187 3.2 12.9 0.00 0.08 0.08 92 1011.1
20260904102559 15 223 3.2 8.0 0.00 0.08 0.08 92 1011.0
20260904102412 15 214 3.2 8.0 0.00 0.08 0.08 91 1011.0
20260904102312 15 240 3.2 8.0 0.00 0.08 0.08 91 1011.0
20260904102211 15 225 3.2 8.0 0.00 0.08 0.08 91 1011.1
20260904102106 15 198 3.2 11.3 0.00 0.08 0.08 91 1011.1
20260904102006 15 233 3.2 11.3 0.00 0.08 0.08 91 1011.0
20260904101949 15 215 3.2 11.3 0.00 0.08 0.08 91 1011.0
20260904101906 15 218 3.2 11.3 0.00 0.08 0.08 91 1011.0
20260904101805 15 239 3.2 11.3 0.00 0.08 0.08 91 1011.0
20260904101706 15 234 3.2 11.3 0.00 0.08 0.08 91 1011.0
20260904101604 15 211 3.2 11.3 0.00 0.08 0.08 91 1011.0
20260904101505 15 211 3.2 11.3 0.00 0.08 0.08 91 1010.9
20260904101448 15 212 3.2 11.3 0.00 0.08 0.08 91 1010.9
20260904101403 15 172 3.2 11.3 0.00 0.08 0.08 91 1011.0
20260904101301 15 228 1.6 11.3 0.00 0.08 0.08 91 1010.9
20260904101200 15 204 1.6 11.3 0.00 0.08 0.08 91 1011.0
20260904101057 15 236 1.6 4.8 0.00 0.08 0.08 91 1010.9
20260904100949 15 221 1.6 4.8 0.00 0.08 0.08 91 1010.9
20260904100857 15 221 1.6 4.8 0.00 0.08 0.08 91 1010.9
20260904100755 15 221 1.6 6.4 0.00 0.08 0.08 91 1010.9
20260904100653 15 221 1.6 6.4 0.00 0.08 0.08 91 1010.9
20260904100550 15 203 3.2 8.0 0.00 0.08 0.08 91 1011.0
20260904100448 15 239 3.2 8.0 0.00 0.08 0.08 91 1011.0
20260904100348 15 161 3.2 8.0 0.00 0.08 0.08 91 1011.0
20260904100248 15 161 3.2 8.0 0.00 0.08 0.08 91 1011.0
20260904100207 15 205 3.2 8.0 0.00 0.08 0.08 91 1011.0
20260904100147 15 211 3.2 8.0 0.00 0.08 0.08 91 1011.0
20260904100059 15 211 3.2 8.0 0.00 0.08 0.08 91 1011.0
20260904095942 15 201 3.2 8.0 0.00 0.08 0.08 91 1011.0
20260904095842 15 233 3.2 8.0 0.00 0.08 0.08 91 1011.0
20260904095742 15 218 3.2 8.0 0.00 0.08 0.08 91 1010.9
20260904095642 15 222 3.2 8.0 0.00 0.08 0.08 91 1011.0
20260904095535 15 210 1.6 8.0 0.00 0.08 0.08 91 1010.9
20260904095448 15 155 1.6 6.4 0.00 0.08 0.08 91 1010.9
20260904095435 15 156 1.6 6.4 0.00 0.08 0.08 91 1010.9
20260904095336 15 211 1.6 6.4 0.00 0.08 0.08 91 1010.9
20260904095234 15 213 1.6 6.4 0.00 0.08 0.08 91 1010.9
20260904095134 15 214 1.6 6.4 0.00 0.08 0.08 91 1010.9
20260904095030 15 219 1.6 6.4 0.00 0.08 0.08 91 1010.9
20260904094929 15 219 1.6 6.4 0.00 0.08 0.08 91 1010.9
20260904094830 15 219 1.6 6.4 0.00 0.08 0.08 91 1010.9
20260904094730 15 233 1.6 6.4 0.00 0.08 0.08 91 1010.9
20260904094629 15 233 3.2 6.4 0.00 0.08 0.08 91 1010.9
20260904094526 15 233 3.2 6.4 0.00 0.08 0.08 91 1010.9
20260904094426 15 229 3.2 6.4 0.00 0.08 0.08 91 1010.9
20260904094326 15 229 3.2 6.4 0.00 0.08 0.08 91 1010.9
20260904094224 15 212 3.2 6.4 0.00 0.08 0.08 91 1010.9
20260904094121 15 225 3.2 6.4 0.00 0.08 0.08 91 1011.0
20260904094018 15 232 3.2 6.4 0.00 0.08 0.08 91 1010.9
20260904093937 15 226 3.2 6.4 0.00 0.08 0.08 91 1010.9
20260904093917 15 225 3.2 6.4 0.00 0.08 0.08 91 1010.9
20260904093818 15 219 1.6 6.4 0.00 0.08 0.08 91 1010.9
20260904093718 15 227 1.6 6.4 0.00 0.08 0.08 91 1010.9
20260904093615 15 226 1.6 6.4 0.00 0.08 0.08 91 1011.0
20260904093509 15 214 1.6 4.8 0.00 0.08 0.08 91 1011.0
20260904093429 15 228 1.6 4.8 0.00 0.08 0.08 91 1011.0
20260904093410 15 203 1.6 4.8 0.00 0.08 0.08 91 1011.0
20260904093309 15 168 1.6 4.8 0.00 0.08 0.08 91 1010.9
20260904093210 15 224 1.6 4.8 0.00 0.08 0.08 91 1010.9
20260904093109 15 215 1.6 4.8 0.00 0.08 0.08 91 1010.9
20260904093005 15 218 1.6 4.8 0.00 0.08 0.08 91 1011.0
20260904092926 15 218 1.6 4.8 0.00 0.08 0.08 91 1011.0
20260904092904 15 218 1.6 4.8 0.00 0.08 0.08 91 1010.9
20260904092803 15 181 1.6 4.8 0.00 0.08 0.08 91 1010.9
20260904092704 15 226 1.6 4.8 0.00 0.08 0.08 91 1010.9
20260904092603 15 143 1.6 4.8 0.00 0.08 0.08 91 1010.9
20260904092501 15 231 1.6 4.8 0.00 0.08 0.08 91 1010.9
20260904092418 15 203 1.6 6.4 0.00 0.08 0.08 91 1010.9
20260904092401 15 233 1.6 6.4 0.00 0.08 0.08 91 1010.9
20260904092301 15 236 1.6 6.4 0.00 0.08 0.08 91 1010.9
20260904092200 15 236 1.6 6.4 0.00 0.08 0.08 91 1010.9
20260904092057 15 236 1.6 6.4 0.00 0.08 0.08 91 1010.8
20260904091957 15 236 1.6 6.4 0.00 0.08 0.08 91 1010.8
20260904091913 15 236 1.6 6.4 0.00 0.08 0.08 91 1010.8
20260904091855 15 237 1.6 6.4 0.00 0.08 0.08 91 1010.8
20260904091756 15 236 1.6 6.4 0.00 0.08 0.08 91 1010.8
20260904091654 15 236 1.6 6.4 0.00 0.08 0.08 91 1010.8
20260904091629 15 236 1.6 4.8 0.00 0.08 0.08 91 1010.9
20260904091551 15 236 1.6 6.4 0.00 0.08 0.08 91 1010.8
20260904091517 15 236 1.6 6.4 0.00 0.08 0.08 91 1010.9
20260904091345 15 236 1.6 4.8 0.00 0.08 0.08 91 1010.9
20260904091245 15 226 1.6 4.8 0.00 0.08 0.08 91 1010.9
20260904091146 15 208 1.6 4.8 0.00 0.08 0.08 91 1010.9
20260904091045 15 203 1.6 4.8 0.00 0.08 0.08 91 1010.9
20260904090946 15 214 1.6 4.8 0.00 0.08 0.08 91 1010.9
20260904090843 15 200 1.6 4.8 0.00 0.08 0.08 91 1010.9
20260904090744 15 200 1.6 4.8 0.00 0.08 0.08 91 1011.0
20260904090642 15 231 1.6 4.8 0.00 0.08 0.08 91 1011.0
20260904090539 15 226 1.6 4.8 0.00 0.08 0.08 91 1011.0
20260904090433 15 210 1.6 4.8 0.00 0.08 0.08 91 1011.0
20260904090333 15 210 1.6 4.8 0.00 0.08 0.08 91 1011.0
20260904090233 15 210 1.6 4.8 0.00 0.08 0.08 91 1011.0
20260904090134 15 210 1.6 4.8 0.00 0.08 0.08 91 1011.0
20260904090034 15 210 1.6 4.8 0.00 0.08 0.08 91 1011.0
20260904085934 15 219 1.6 4.8 0.00 0.08 0.08 91 1011.0
20260904085832 15 219 1.6 4.8 0.00 0.08 0.08 91 1011.0
20260904085731 15 214 1.6 4.8 0.00 0.08 0.08 91 1011.0
20260904085629 15 214 1.6 4.8 0.00 0.08 0.08 91 1011.1
20260904085527 15 211 1.6 3.2 0.00 0.08 0.08 91 1011.0
20260904085428 15 200 1.6 3.2 0.00 0.08 0.08 91 1011.0
20260904085325 15 200 1.6 3.2 0.00 0.08 0.08 91 1011.0
20260904085224 15 210 0.0 3.2 0.00 0.08 0.08 91 1011.0
20260904085124 15 205 0.0 3.2 0.00 0.08 0.08 91 1011.1
20260904085021 15 186 0.0 3.2 0.00 0.08 0.08 90 1011.1
20260904084922 15 228 0.0 3.2 0.00 0.08 0.08 91 1011.1
20260904084836 15 205 0.0 1.6 0.00 0.08 0.08 91 1011.1
20260904084819 15 204 0.0 1.6 0.00 0.08 0.08 91 1011.1
20260904084720 15 204 0.0 1.6 0.00 0.08 0.08 91 1011.1
20260904084618 15 204 0.0 1.6 0.00 0.08 0.08 91 1011.1
20260904084516 15 205 0.0 1.6 0.00 0.08 0.08 91 1011.1
20260904084412 15 204 0.0 1.6 0.00 0.08 0.08 91 1011.1
20260904084343 15 204 0.0 1.6 0.00 0.08 0.08 91 1011.1
20260904084312 15 204 0.0 1.6 0.00 0.08 0.08 91 1011.1
20260904084211 15 204 0.0 1.6 0.00 0.08 0.08 91 1011.1
20260904084112 15 204 0.0 3.2 0.00 0.08 0.08 91 1011.1
20260904084048 15 204 1.6 3.2 0.00 0.08 0.08 91 1011.1
20260904084009 15 205 0.0 3.2 0.00 0.08 0.08 91 1011.1
20260904083938 15 204 1.6 3.2 0.00 0.08 0.08 91 1011.1
20260904083808 15 204 1.6 3.2 0.00 0.08 0.08 91 1011.1
20260904083708 15 204 1.6 3.2 0.00 0.08 0.08 91 1011.1
20260904083606 15 204 1.6 3.2 0.00 0.08 0.08 91 1011.1
20260904083507 15 205 1.6 3.2 0.00 0.08 0.08 91 1011.1
20260904083404 15 205 1.6 3.2 0.00 0.08 0.08 91 1011.1
20260904083331 15 204 1.6 3.2 0.00 0.08 0.08 91 1011.1
20260904083302 15 205 1.6 3.2 0.00 0.08 0.08 91 1011.1
20260904083201 15 204 1.6 3.2 0.00 0.08 0.08 91 1011.1
20260904083100 15 200 0.0 3.2 0.00 0.08 0.08 91 1011.1
20260904083032 15 212 0.0 3.2 0.03 0.08 0.08 91 1011.1
20260904082957 15 225 0.0 3.2 0.00 0.08 0.08 91 1011.1
20260904082926 15 224 0.0 3.2 0.00 0.08 0.08 91 1011.1
20260904082755 15 212 0.0 3.2 0.03 0.08 0.08 91 1011.1
20260904082655 15 212 0.0 3.2 0.03 0.08 0.08 91 1011.1
20260904082554 15 226 0.0 3.2 0.03 0.08 0.08 91 1011.1
20260904082450 15 226 0.0 3.2 0.03 0.08 0.08 91 1011.1
20260904082352 15 226 0.0 3.2 0.03 0.08 0.08 91 1011.2
20260904082306 15 226 1.6 3.2 0.03 0.08 0.08 91 1011.1
20260904082249 15 226 1.6 3.2 0.03 0.08 0.08 91 1011.1
20260904082150 15 226 1.6 3.2 0.03 0.08 0.08 91 1011.1
20260904082047 15 226 1.6 3.2 0.03 0.08 0.08 91 1011.1
20260904081946 15 226 1.6 3.2 0.03 0.08 0.08 91 1011.2
20260904081846 15 226 1.6 3.2 0.03 0.08 0.08 91 1011.2
20260904081743 15 226 0.0 3.2 0.03 0.08 0.08 91 1011.1
20260904081643 15 232 1.6 3.2 0.03 0.08 0.08 91 1011.2
20260904081541 15 232 0.0 3.2 0.03 0.08 0.08 91 1011.2
20260904081520 15 236 0.0 3.2 0.05 0.08 0.08 91 1011.2
20260904081439 15 238 0.0 3.2 0.03 0.08 0.08 91 1011.2
20260904081405 15 238 0.0 3.2 0.03 0.08 0.08 91 1011.2
20260904081238 15 220 0.0 3.2 0.05 0.08 0.08 91 1011.2
20260904081138 15 158 0.0 3.2 0.05 0.08 0.08 91 1011.2
20260904081036 15 158 0.0 3.2 0.05 0.08 0.08 91 1011.1
20260904080933 15 136 0.0 4.8 0.05 0.08 0.08 91 1011.1
20260904080829 15 231 1.6 4.8 0.05 0.08 0.08 91 1011.2
20260904080748 15 231 1.6 4.8 0.05 0.08 0.08 91 1011.1
20260904080727 15 158 1.6 4.8 0.05 0.08 0.08 91 1011.1
20260904080628 15 158 1.6 4.8 0.05 0.08 0.08 91 1011.1
20260904080528 15 158 1.6 4.8 0.05 0.08 0.08 91 1011.1
20260904080427 15 158 1.6 4.8 0.05 0.08 0.08 91 1011.2
20260904080325 15 163 1.6 4.8 0.05 0.08 0.08 91 1011.1
20260904080226 15 162 3.2 6.4 0.05 0.08 0.08 91 1011.2
20260904080125 15 162 3.2 6.4 0.08 0.08 0.08 91 1011.2
20260904080024 15 235 3.2 6.4 0.08 0.08 0.08 91 1011.2
20260904075958 15 243 3.2 8.0 0.08 0.08 0.08 91 1011.2
20260904075922 15 207 3.2 6.4 0.08 0.08 0.08 91 1011.2
20260904075846 15 212 3.2 8.0 0.08 0.08 0.08 91 1011.2
20260904075718 15 223 3.2 8.0 0.08 0.08 0.08 91 1011.2
20260904075618 15 187 3.2 8.0 0.08 0.08 0.08 91 1011.2
20260904075517 15 224 3.2 8.0 0.08 0.08 0.08 91 1011.2
20260904075415 15 228 3.2 8.0 0.08 0.08 0.08 91 1011.2
20260904075309 16 231 3.2 8.0 0.08 0.08 0.08 91 1011.2
20260904075231 16 166 3.2 8.0 0.08 0.08 0.08 91 1011.2
20260904075210 16 229 3.2 8.0 0.08 0.08 0.08 91 1011.2
20260904075110 16 148 3.2 8.0 0.08 0.08 0.08 91 1011.2
20260904075009 16 266 3.2 8.0 0.08 0.08 0.08 91 1011.2
20260904074909 16 147 3.2 8.0 0.08 0.08 0.08 91 1011.3
20260904074810 16 225 3.2 8.0 0.08 0.08 0.08 91 1011.3
20260904074724 16 228 3.2 8.0 0.08 0.08 0.08 91 1011.3
20260904074708 16 222 3.2 8.0 0.08 0.08 0.08 91 1011.2
20260904074608 16 219 3.2 8.0 0.08 0.08 0.08 91 1011.2
20260904074506 16 229 3.2 8.0 0.08 0.08 0.08 91 1011.3
20260904074405 16 226 3.2 8.0 0.08 0.08 0.08 91 1011.2
20260904074303 16 226 3.2 8.0 0.08 0.08 0.08 91 1011.2
20260904074218 16 235 3.2 8.0 0.08 0.08 0.08 91 1011.2
20260904074202 16 221 3.2 6.4 0.08 0.08 0.08 91 1011.2
20260904074101 16 229 1.6 6.4 0.08 0.08 0.08 91 1011.2
20260904073959 16 214 1.6 4.8 0.08 0.08 0.08 91 1011.2
20260904073857 16 222 1.6 4.8 0.08 0.08 0.08 91 1011.1
20260904073755 16 155 1.6 4.8 0.08 0.08 0.08 91 1011.0
20260904073712 16 200 1.6 4.8 0.08 0.08 0.08 91 1011.1
20260904073656 16 203 1.6 4.8 0.08 0.08 0.08 91 1011.1
20260904073555 16 236 1.6 4.8 0.08 0.08 0.08 91 1011.1
20260904073453 16 229 1.6 4.8 0.08 0.08 0.08 91 1011.1
20260904073352 16 157 1.6 4.8 0.08 0.08 0.08 91 1011.0
20260904073248 16 233 1.6 4.8 0.08 0.08 0.08 91 1011.0
20260904073207 16 165 1.6 4.8 0.08 0.08 0.08 91 1011.1
20260904073146 16 165 1.6 4.8 0.08 0.08 0.08 91 1011.1
20260904073045 16 126 1.6 4.8 0.08 0.08 0.08 91 1011.0
20260904072946 16 125 1.6 4.8 0.08 0.08 0.08 91 1011.0
20260904072845 16 139 1.6 4.8 0.08 0.08 0.08 91 1011.0
20260904072744 16 142 1.6 4.8 0.05 0.05 0.08 91 1011.0
20260904072700 16 158 1.6 4.8 0.05 0.05 0.05 91 1010.9
20260904072644 16 149 1.6 4.8 0.05 0.05 0.05 91 1010.9
20260904072544 16 158 1.6 4.8 0.05 0.05 0.05 91 1011.0
20260904072441 16 104 1.6 6.4 0.05 0.05 0.05 91 1011.0
20260904072339 16 146 1.6 6.4 0.05 0.05 0.05 91 1010.9
20260904072240 16 155 1.6 6.4 0.05 0.05 0.05 91 1011.0
20260904072138 16 127 1.6 6.4 0.05 0.05 0.05 91 1010.9
20260904072038 16 127 1.6 6.4 0.05 0.05 0.05 91 1010.9
20260904071936 16 155 3.2 6.4 0.05 0.05 0.05 91 1010.9
20260904071833 16 156 3.2 6.4 0.05 0.05 0.05 91 1010.9
20260904071730 16 117 1.6 6.4 0.05 0.05 0.05 91 1010.9
20260904071627 16 148 1.6 6.4 0.05 0.05 0.05 91 1011.0
20260904071528 16 143 1.6 4.8 0.05 0.05 0.05 91 1011.0
20260904071428 16 107 1.6 4.8 0.05 0.05 0.05 91 1011.0
20260904071327 16 131 1.6 4.8 0.03 0.03 0.05 91 1011.0
20260904071223 16 123 1.6 4.8 0.03 0.03 0.03 91 1011.0
20260904071143 16 141 1.6 4.8 0.03 0.03 0.03 91 1011.1
20260904071124 16 126 1.6 4.8 0.03 0.03 0.03 91 1011.1
20260904071023 16 204 1.6 4.8 0.03 0.03 0.03 91 1011.1
20260904070924 16 148 1.6 4.8 0.03 0.03 0.03 91 1011.1
20260904070825 16 129 1.6 4.8 0.03 0.03 0.03 91 1011.1
20260904070721 16 238 1.6 8.0 0.03 0.03 0.03 91 1011.1
20260904070652 16 238 1.6 8.0 0.03 0.03 0.03 91 1011.1
20260904070619 16 238 1.6 8.0 0.03 0.03 0.03 91 1011.1
20260904070520 16 238 1.6 8.0 0.03 0.03 0.03 91 1011.2
20260904070418 16 211 1.6 8.0 0.03 0.03 0.03 91 1011.2
20260904070315 16 197 3.2 8.0 0.03 0.03 0.03 91 1011.2
20260904070210 16 197 3.2 11.3 0.03 0.03 0.03 91 1011.2
20260904070139 16 215 3.2 11.3 0.00 0.00 0.00 91 1011.2
20260904070109 16 188 3.2 11.3 0.00 0.00 0.00 91 1011.1
20260904070010 16 221 3.2 11.3 0.00 0.00 0.00 91 1011.2
20260904065910 16 203 3.2 11.3 0.00 0.00 0.00 90 1011.2
20260904065809 17 250 3.2 11.3 0.00 0.00 0.00 90 1011.2
20260904065704 17 242 3.2 11.3 0.00 0.00 0.00 88 1011.2
20260904065639 17 195 3.2 11.3 0.00 0.00 0.00 88 1011.2
20260904065603 17 195 4.8 11.3 0.00 0.00 0.00 88 1011.2
20260904065503 17 236 4.8 12.9 0.00 0.00 0.00 87 1011.2
20260904065401 17 229 4.8 12.9 0.00 0.00 0.00 87 1011.2
20260904065301 17 219 4.8 12.9 0.00 0.00 0.00 87 1011.2
20260904065158 17 239 4.8 12.9 0.00 0.00 0.00 87 1011.2
20260904065140 17 240 4.8 12.9 0.00 0.00 0.00 87 1011.2
20260904065056 17 239 6.4 12.9 0.00 0.00 0.00 87 1011.2
20260904064956 17 168 6.4 12.9 0.00 0.00 0.00 87 1011.2
20260904064856 17 231 4.8 12.9 0.00 0.00 0.00 86 1011.2
20260904064755 17 232 4.8 12.9 0.00 0.00 0.00 86 1011.2
20260904064650 17 246 4.8 12.9 0.00 0.00 0.00 86 1011.2
20260904064637 17 235 4.8 12.9 0.00 0.00 0.00 86 1011.2
20260904064550 17 240 4.8 12.9 0.00 0.00 0.00 86 1011.1
20260904064450 17 231 4.8 11.3 0.00 0.00 0.00 85 1011.2
20260904064350 17 238 4.8 11.3 0.00 0.00 0.00 85 1011.1
20260904064248 17 250 3.2 9.7 0.00 0.00 0.00 85 1011.2
20260904064148 17 225 3.2 9.7 0.00 0.00 0.00 85 1011.1
20260904064137 17 231 3.2 9.7 0.00 0.00 0.00 85 1011.1
20260904064044 17 235 3.2 9.7 0.00 0.00 0.00 85 1011.1
20260904063944 17 226 3.2 9.7 0.00 0.00 0.00 85 1011.1
20260904063844 17 210 4.8 9.7 0.00 0.00 0.00 84 1011.1
20260904063741 17 248 4.8 9.7 0.00 0.00 0.00 84 1011.1
20260904063643 17 232 4.8 9.7 0.00 0.00 0.00 84 1011.1
20260904063637 17 222 4.8 9.7 0.00 0.00 0.00 84 1011.1
20260904063535 17 231 4.8 9.7 0.00 0.00 0.00 84 1011.1
20260904063436 17 253 4.8 12.9 0.00 0.00 0.00 84 1011.1
20260904063336 17 233 4.8 12.9 0.00 0.00 0.00 84 1011.1
20260904063233 17 217 6.4 12.9 0.00 0.00 0.00 84 1011.0
20260904063136 17 235 6.4 12.9 0.00 0.00 0.00 84 1011.0
20260904063126 17 223 6.4 12.9 0.00 0.00 0.00 84 1011.0
20260904063025 17 238 6.4 12.9 0.00 0.00 0.00 84 1011.0
20260904062926 17 235 6.4 12.9 0.00 0.00 0.00 84 1011.1
20260904062826 17 266 4.8 12.9 0.00 0.00 0.00 84 1011.0
20260904062726 17 245 4.8 12.9 0.00 0.00 0.00 83 1011.0
20260904062636 17 245 4.8 12.9 0.00 0.00 0.00 83 1011.0
20260904062620 17 248 4.8 12.9 0.00 0.00 0.00 83 1011.0
20260904062520 17 229 4.8 12.9 0.00 0.00 0.00 83 1011.0
20260904062420 18 245 4.8 12.9 0.00 0.00 0.00 83 1011.0
20260904062320 18 240 3.2 12.9 0.00 0.00 0.00 83 1011.0
20260904062221 18 245 3.2 9.7 0.00 0.00 0.00 83 1011.0
20260904062136 18 240 3.2 9.7 0.00 0.00 0.00 83 1011.0
20260904062116 18 250 3.2 9.7 0.00 0.00 0.00 83 1011.0
20260904062016 18 258 3.2 9.7 0.00 0.00 0.00 83 1011.0
20260904061916 18 238 3.2 9.7 0.00 0.00 0.00 83 1011.0
20260904061908 18 243 3.2 9.7 0.00 0.00 0.00 82 1011.1
20260904061816 18 225 3.2 9.7 0.00 0.00 0.00 83 1011.0
20260904061759 18 252 3.2 9.7 0.00 0.00 0.00 82 1011.1
20260904061607 18 218 3.2 9.7 0.00 0.00 0.00 82 1011.1
20260904061508 18 236 4.8 9.7 0.00 0.00 0.00 82 1011.0
20260904061407 18 276 4.8 14.5 0.00 0.00 0.00 82 1011.1
20260904061308 18 242 4.8 14.5 0.00 0.00 0.00 82 1011.0
20260904061205 18 236 4.8 14.5 0.00 0.00 0.00 82 1011.0
20260904061134 18 215 4.8 14.5 0.00 0.00 0.00 82 1011.0
20260904061057 18 274 4.8 14.5 0.00 0.00 0.00 82 1011.0
20260904060957 18 236 4.8 14.5 0.00 0.00 0.00 82 1011.0
20260904060856 18 233 4.8 14.5 0.00 0.00 0.00 82 1011.0
20260904060757 18 236 4.8 14.5 0.00 0.00 0.00 82 1011.0
20260904060656 18 229 3.2 14.5 0.00 0.00 0.00 82 1011.0
20260904060635 18 245 3.2 14.5 0.00 0.00 0.00 82 1011.0
20260904060549 18 210 3.2 14.5 0.00 0.00 0.00 82 1010.9
20260904060449 18 221 3.2 14.5 0.00 0.00 0.00 82 1010.9
20260904060349 18 231 3.2 9.7 0.00 0.00 0.00 82 1011.0
20260904060249 18 193 3.2 9.7 0.00 0.00 0.00 82 1010.9
20260904060148 18 229 3.2 8.0 0.00 0.00 0.00 82 1011.0
20260904060134 18 239 3.2 8.0 0.00 0.00 0.00 82 1011.0
20260904060119 18 212 3.2 8.0 0.00 0.00 0.00 82 1010.9
20260904060045 18 201 3.2 6.4 0.00 0.00 0.00 82 1010.9
20260904060004 18 148 3.2 6.4 0.00 0.00 0.00 82 1010.9
20260904055844 18 212 3.2 6.4 0.00 0.00 0.00 82 1010.9
20260904055750 18 212 3.2 8.0 0.00 0.00 0.00 82 1010.9
20260904055741 18 212 3.2 8.0 0.00 0.00 0.00 82 1010.9
20260904055535 18 215 3.2 8.0 0.00 0.00 0.00 82 1010.9
20260904055435 18 203 3.2 9.7 0.00 0.00 0.00 82 1011.0
20260904055333 18 211 4.8 9.7 0.00 0.00 0.00 82 1010.9
20260904055233 18 231 4.8 11.3 0.00 0.00 0.00 82 1010.9
20260904055133 18 228 4.8 11.3 0.00 0.00 0.00 82 1011.0
20260904055028 18 218 4.8 11.3 0.00 0.00 0.00 81 1010.9
20260904054926 18 205 4.8 11.3 0.00 0.00 0.00 81 1011.0
20260904054827 18 242 3.2 11.3 0.00 0.00 0.00 81 1011.0
20260904054727 18 236 4.8 11.3 0.00 0.00 0.00 81 1010.9
20260904054643 18 239 4.8 11.3 0.00 0.00 0.00 81 1010.9
20260904054526 18 226 4.8 11.3 0.00 0.00 0.00 81 1010.9
20260904054425 18 134 4.8 12.9 0.00 0.00 0.00 81 1011.0
20260904054323 18 219 4.8 16.1 0.00 0.00 0.00 81 1011.0
20260904054223 18 243 4.8 16.1 0.00 0.00 0.00 81 1011.0
20260904054121 18 233 4.8 16.1 0.00 0.00 0.00 81 1011.0
20260904054015 18 246 4.8 16.1 0.00 0.00 0.00 81 1011.0
20260904053915 18 255 6.4 16.1 0.00 0.00 0.00 81 1011.0
20260904053821 18 262 6.4 16.1 0.00 0.00 0.00 81 1011.0
20260904053715 18 242 4.8 16.1 0.00 0.00 0.00 81 1011.1
20260904053616 18 179 6.4 16.1 0.00 0.00 0.00 80 1011.0
20260904053509 18 238 6.4 16.1 0.00 0.00 0.00 80 1011.0
20260904053409 18 236 4.8 12.9 0.00 0.00 0.00 80 1011.1
20260904053309 18 250 4.8 12.9 0.00 0.00 0.00 80 1011.1
20260904053208 18 191 4.8 12.9 0.00 0.00 0.00 80 1011.1
20260904053109 18 245 4.8 12.9 0.00 0.00 0.00 80 1011.1
20260904053006 18 226 3.2 12.9 0.00 0.00 0.00 80 1011.1
20260904052903 18 210 3.2 12.9 0.00 0.00 0.00 80 1011.1
20260904052802 18 217 3.2 12.9 0.00 0.00 0.00 80 1011.1
20260904052703 18 228 3.2 12.9 0.00 0.00 0.00 80 1011.1
20260904052604 18 221 3.2 12.9 0.00 0.00 0.00 80 1011.1
20260904052457 18 240 3.2 9.7 0.00 0.00 0.00 80 1011.1
20260904052357 18 248 3.2 9.7 0.00 0.00 0.00 80 1011.1
20260904052257 18 235 3.2 9.7 0.00 0.00 0.00 80 1011.1
20260904052157 18 233 3.2 9.7 0.00 0.00 0.00 81 1011.1
20260904052057 18 158 3.2 6.4 0.00 0.00 0.00 81 1011.1
20260904051956 18 152 3.2 6.4 0.00 0.00 0.00 81 1011.1
20260904051855 18 143 3.2 8.0 0.00 0.00 0.00 81 1011.1
20260904051755 18 224 3.2 8.0 0.00 0.00 0.00 81 1011.1
20260904051653 18 224 3.2 8.0 0.00 0.00 0.00 81 1011.1
20260904051550 18 154 3.2 8.0 0.00 0.00 0.00 81 1011.1
20260904051451 18 232 3.2 8.0 0.00 0.00 0.00 81 1011.1
20260904051349 18 242 3.2 8.0 0.00 0.00 0.00 81 1011.1
20260904051249 18 230 3.2 9.7 0.00 0.00 0.00 81 1011.1
20260904051148 18 238 3.2 9.7 0.00 0.00 0.00 80 1011.1
20260904051046 18 224 3.2 9.7 0.00 0.00 0.00 80 1011.1
20260904050941 18 235 3.2 9.7 0.00 0.00 0.00 80 1011.1
20260904050842 18 187 3.2 9.7 0.00 0.00 0.00 80 1011.2
20260904050759 18 232 4.8 11.3 0.00 0.00 0.00 80 1011.1
20260904050742 18 233 3.2 9.7 0.00 0.00 0.00 80 1011.1
20260904050655 18 232 3.2 11.3 0.00 0.00 0.00 80 1011.2
20260904050644 18 232 4.8 11.3 0.00 0.00 0.00 80 1011.1
20260904050435 18 214 4.8 11.3 0.00 0.00 0.00 80 1011.1
20260904050333 18 231 4.8 11.3 0.00 0.00 0.00 80 1011.1
20260904050320 18 219 4.8 11.3 0.00 0.00 0.00 80 1011.1
20260904050232 18 210 4.8 11.3 0.00 0.00 0.00 80 1011.1
20260904050203 18 223 4.8 11.3 0.00 0.00 0.00 80 1011.1
20260904050033 18 219 4.8 11.3 0.00 0.00 0.00 80 1011.1
20260904045929 18 190 4.8 11.3 0.00 0.00 0.00 80 1011.1
20260904045827 18 233 4.8 11.3 0.00 0.00 0.00 80 1011.0
20260904045727 18 221 4.8 11.3 0.00 0.00 0.00 80 1011.0
20260904045628 18 230 4.8 14.5 0.00 0.00 0.00 80 1011.0
20260904045538 18 243 4.8 14.5 0.00 0.00 0.00 80 1010.9
20260904045527 18 222 4.8 14.5 0.00 0.00 0.00 80 1010.9
20260904045421 19 242 4.8 14.5 0.00 0.00 0.00 80 1010.9
20260904045321 19 233 4.8 14.5 0.00 0.00 0.00 80 1010.9
20260904045221 19 236 4.8 14.5 0.00 0.00 0.00 79 1010.8
20260904045121 19 217 4.8 14.5 0.00 0.00 0.00 79 1010.9
20260904045037 19 232 3.2 14.5 0.00 0.00 0.00 79 1010.8
20260904045021 19 231 3.2 14.5 0.00 0.00 0.00 79 1010.8
20260904044915 19 232 3.2 14.5 0.00 0.00 0.00 79 1010.9
20260904044819 19 235 3.2 14.5 0.00 0.00 0.00 79 1010.9
20260904044715 19 216 3.2 14.5 0.00 0.00 0.00 79 1010.8
20260904044615 19 232 1.6 8.0 0.00 0.00 0.00 79 1010.9
20260904044537 19 165 1.6 8.0 0.00 0.00 0.00 79 1010.9
20260904044514 19 215 1.6 8.0 0.00 0.00 0.00 79 1010.9
20260904044411 19 142 1.6 6.4 0.00 0.00 0.00 79 1010.9
20260904044312 19 228 1.6 6.4 0.00 0.00 0.00 79 1010.9
20260904044211 19 246 1.6 6.4 0.00 0.00 0.00 80 1010.8
20260904044111 19 235 1.6 6.4 0.00 0.00 0.00 79 1010.9
20260904044035 19 235 1.6 6.4 0.00 0.00 0.00 79 1010.9
20260904044009 19 242 1.6 6.4 0.00 0.00 0.00 79 1010.9
20260904043908 19 240 1.6 8.0 0.00 0.00 0.00 79 1010.9
20260904043807 19 238 1.6 8.0 0.00 0.00 0.00 79 1010.9
20260904043707 19 233 1.6 8.0 0.00 0.00 0.00 79 1010.9
20260904043605 19 250 1.6 8.0 0.00 0.00 0.00 79 1011.0
20260904043533 19 231 1.6 8.0 0.00 0.00 0.00 79 1011.0
20260904043502 19 231 1.6 8.0 0.00 0.00 0.00 79 1010.9
20260904043359 19 232 1.6 8.0 0.00 0.00 0.00 79 1011.0
20260904043257 19 238 1.6 8.0 0.00 0.00 0.00 79 1011.0
20260904043157 19 232 1.6 8.0 0.00 0.00 0.00 79 1011.0
20260904043056 19 248 1.6 9.7 0.00 0.00 0.00 79 1011.0
20260904043033 19 228 1.6 9.7 0.00 0.00 0.00 79 1011.0
20260904042956 19 269 1.6 9.7 0.00 0.00 0.00 79 1011.0
20260904042856 19 241 1.6 12.9 0.00 0.00 0.00 79 1011.0
20260904042755 19 225 3.2 12.9 0.00 0.00 0.00 79 1011.0
20260904042656 19 225 3.2 12.9 0.00 0.00 0.00 79 1011.0
20260904042533 19 225 3.2 12.9 0.00 0.00 0.00 79 1011.0
20260904042450 19 214 3.2 12.9 0.00 0.00 0.00 79 1011.0
20260904042345 19 193 3.2 12.9 0.00 0.00 0.00 79 1011.0
20260904042252 19 242 3.2 12.9 0.00 0.00 0.00 79 1011.0
20260904042245 19 250 3.2 12.9 0.00 0.00 0.00 79 1011.0
20260904042148 19 240 3.2 12.9 0.00 0.00 0.00 79 1011.0
20260904042139 19 228 3.2 12.9 0.00 0.00 0.00 79 1011.0
20260904041944 19 231 3.2 12.9 0.00 0.00 0.00 79 1011.0
20260904041843 19 250 1.6 9.7 0.00 0.00 0.00 79 1011.0
20260904041743 19 207 1.6 9.7 0.00 0.00 0.00 79 1011.0
20260904041644 19 226 1.6 4.8 0.00 0.00 0.00 79 1011.0
20260904041529 19 207 1.6 4.8 0.00 0.00 0.00 79 1011.0
20260904041439 19 232 1.6 4.8 0.00 0.00 0.00 79 1010.9
20260904041335 19 233 1.6 4.8 0.00 0.00 0.00 79 1011.0
20260904041232 19 231 1.6 4.8 0.00 0.00 0.00 79 1010.9
20260904041134 19 235 1.6 4.8 0.00 0.00 0.00 79 1010.9
20260904041035 19 238 0.0 4.8 0.00 0.00 0.00 79 1010.9
20260904041027 19 239 0.0 4.8 0.00 0.00 0.00 79 1010.9
20260904040933 19 231 0.0 4.8 0.00 0.00 0.00 80 1010.9
20260904040833 19 262 0.0 4.8 0.00 0.00 0.00 80 1010.9
20260904040752 19 242 0.0 1.6 0.00 0.00 0.00 80 1010.9
20260904040731 19 241 0.0 1.6 0.00 0.00 0.00 80 1010.9
20260904040644 19 241 0.0 1.6 0.00 0.00 0.00 80 1011.0
20260904040633 19 242 0.0 1.6 0.00 0.00 0.00 80 1010.9
20260904040426 19 242 0.0 1.6 0.00 0.00 0.00 80 1010.9
20260904040323 19 242 0.0 3.2 0.00 0.00 0.00 80 1010.9
20260904040221 19 242 0.0 6.4 0.00 0.00 0.00 80 1010.8
20260904040121 19 248 0.0 6.4 0.00 0.00 0.00 80 1010.9
20260904040028 19 246 0.0 6.4 0.00 0.00 0.00 80 1010.9
20260904040021 19 245 0.0 6.4 0.00 0.00 0.00 80 1010.9
20260904035921 19 246 0.0 6.4 0.00 0.00 0.00 80 1010.9
20260904035820 19 246 0.0 6.4 0.00 0.00 0.00 80 1010.9
20260904035719 19 246 0.0 6.4 0.00 0.00 0.00 80 1010.9
20260904035618 19 248 0.0 6.4 0.00 0.00 0.00 80 1010.9
20260904035516 19 246 0.0 6.4 0.00 0.00 0.00 80 1010.9
20260904035415 19 248 0.0 6.4 0.00 0.00 0.00 80 1010.9
20260904035309 19 231 0.0 4.8 0.00 0.00 0.00 80 1010.9
20260904035209 19 243 0.0 6.4 0.00 0.00 0.00 80 1010.9
20260904035108 19 243 0.0 6.4 0.00 0.00 0.00 80 1010.9
20260904035009 19 243 0.0 6.4 0.00 0.00 0.00 80 1010.9
20260904034908 19 243 0.0 6.4 0.00 0.00 0.00 80 1010.9
20260904034802 19 243 0.0 6.4 0.00 0.00 0.00 80 1011.0
20260904034703 19 243 0.0 6.4 0.00 0.00 0.00 80 1010.9
20260904034603 19 243 0.0 6.4 0.00 0.00 0.00 80 1010.9
20260904034504 19 243 0.0 6.4 0.00 0.00 0.00 80 1010.9
20260904034402 19 239 0.0 6.4 0.00 0.00 0.00 80 1010.9
20260904034259 19 241 0.0 6.4 0.00 0.00 0.00 80 1010.9
20260904034159 19 241 0.0 4.8 0.00 0.00 0.00 80 1010.9
20260904034059 19 242 0.0 4.8 0.00 0.00 0.00 80 1010.9
20260904034021 19 241 0.0 4.8 0.00 0.00 0.00 80 1010.9
20260904033959 19 242 0.0 4.8 0.00 0.00 0.00 80 1010.9
20260904033856 19 242 0.0 4.8 0.00 0.00 0.00 80 1010.9
20260904033753 19 235 0.0 6.4 0.00 0.00 0.00 80 1010.9
20260904033652 19 204 0.0 6.4 0.00 0.00 0.00 80 1010.9
20260904033521 19 204 1.6 6.4 0.00 0.00 0.00 80 1010.8
20260904033451 19 236 1.6 6.4 0.00 0.00 0.00 80 1010.9
20260904033350 19 236 1.6 6.4 0.00 0.00 0.00 80 1010.9
20260904033251 19 236 1.6 6.4 0.00 0.00 0.00 80 1010.9
20260904033148 19 236 1.6 6.4 0.00 0.00 0.00 80 1010.8
20260904033020 19 236 1.6 6.4 0.00 0.00 0.00 80 1010.8
20260904032947 19 236 1.6 6.4 0.00 0.00 0.00 80 1010.8
20260904032844 19 236 1.6 11.3 0.00 0.00 0.00 80 1010.8
20260904032740 19 239 1.6 11.3 0.00 0.00 0.00 80 1010.8
20260904032641 19 253 1.6 11.3 0.00 0.00 0.00 80 1010.8
20260904032541 19 235 1.6 11.3 0.00 0.00 0.00 80 1010.8
20260904032518 19 236 1.6 11.3 0.00 0.00 0.00 80 1010.8
20260904032440 19 239 1.6 11.3 0.00 0.00 0.00 80 1010.7
20260904032336 19 250 1.6 11.3 0.00 0.00 0.00 80 1010.7
20260904032231 19 250 1.6 11.3 0.00 0.00 0.00 80 1010.7
20260904032130 19 229 0.0 11.3 0.00 0.00 0.00 79 1010.7
20260904032031 19 232 0.0 11.3 0.00 0.00 0.00 79 1010.7
20260904032013 19 232 0.0 11.3 0.00 0.00 0.00 79 1010.6
20260904031931 19 240 0.0 11.3 0.00 0.00 0.00 79 1010.6
20260904031830 19 257 0.0 3.2 0.00 0.00 0.00 79 1010.6
20260904031726 19 243 0.0 4.8 0.00 0.00 0.00 79 1010.7
20260904031626 19 243 0.0 4.8 0.00 0.00 0.00 79 1010.6
20260904031525 19 245 1.6 6.4 0.00 0.00 0.00 79 1010.6
20260904031507 19 243 1.6 6.4 0.00 0.00 0.00 79 1010.5
20260904031425 19 243 1.6 6.4 0.00 0.00 0.00 79 1010.5
20260904031324 19 233 1.6 6.4 0.00 0.00 0.00 79 1010.5
20260904031223 19 239 1.6 6.4 0.00 0.00 0.00 79 1010.5
20260904031217 19 239 0.0 6.4 0.00 0.00 0.00 79 1010.5
20260904031126 19 239 1.6 6.4 0.00 0.00 0.00 79 1010.5
20260904031023 19 239 1.6 6.4 0.00 0.00 0.00 79 1010.5
20260904030921 19 231 0.0 6.4 0.00 0.00 0.00 79 1010.5
20260904030818 19 231 0.0 6.4 0.00 0.00 0.00 79 1010.5
20260904030723 19 233 0.0 3.2 0.00 0.00 0.00 79 1010.5
20260904030715 19 245 0.0 6.4 0.00 0.00 0.00 79 1010.5
20260904030613 19 217 0.0 6.4 0.00 0.00 0.00 80 1010.5
20260904030602 19 233 0.0 3.2 0.00 0.00 0.00 80 1010.5
20260904030413 19 233 0.0 4.8 0.00 0.00 0.00 79 1010.5
20260904030312 19 233 1.6 6.4 0.00 0.00 0.00 79 1010.4
20260904030216 19 232 1.6 14.5 0.00 0.00 0.00 79 1010.4
20260904030209 19 233 1.6 14.5 0.00 0.00 0.00 79 1010.5
20260904030107 19 233 1.6 14.5 0.00 0.00 0.00 79 1010.4
20260904030059 19 232 1.6 14.5 0.00 0.00 0.00 79 1010.4
20260904025907 19 232 1.6 14.5 0.00 0.00 0.00 79 1010.4
20260904025810 19 232 1.6 14.5 0.00 0.00 0.00 79 1010.4
20260904025705 19 259 1.6 14.5 0.00 0.00 0.00 79 1010.4
20260904025701 19 233 1.6 14.5 0.00 0.00 0.00 79 1010.4
20260904025600 19 232 1.6 14.5 0.00 0.00 0.00 79 1010.4
20260904025550 19 179 1.6 14.5 0.00 0.00 0.00 79 1010.4
20260904025401 19 219 1.6 14.5 0.00 0.00 0.00 79 1010.4
20260904025300 19 280 1.6 14.5 0.00 0.00 0.00 79 1010.4
20260904025158 19 235 1.6 17.7 0.00 0.00 0.00 79 1010.4
20260904025055 19 235 3.2 17.7 0.00 0.00 0.00 79 1010.4
20260904024954 19 226 3.2 17.7 0.00 0.00 0.00 79 1010.4
20260904024936 19 212 3.2 17.7 0.00 0.00 0.00 79 1010.4
20260904024855 19 212 3.2 17.7 0.00 0.00 0.00 79 1010.4
20260904024754 19 233 3.2 17.7 0.00 0.00 0.00 79 1010.4
20260904024655 19 245 3.2 17.7 0.00 0.00 0.00 79 1010.5
20260904024553 19 253 3.2 17.7 0.00 0.00 0.00 79 1010.5
20260904024453 19 290 3.2 17.7 0.00 0.00 0.00 79 1010.5
20260904024430 19 311 3.2 19.3 0.00 0.00 0.00 79 1010.5
20260904024352 20 232 3.2 19.3 0.00 0.00 0.00 79 1010.5
20260904024248 20 240 3.2 19.3 0.00 0.00 0.00 80 1010.5
20260904024144 20 250 3.2 19.3 0.00 0.00 0.00 80 1010.4
20260904024043 20 229 3.2 19.3 0.00 0.00 0.00 80 1010.5
20260904023943 20 224 3.2 19.3 0.00 0.00 0.00 80 1010.5
20260904023924 20 284 3.2 19.3 0.00 0.00 0.00 80 1010.5
20260904023842 20 281 3.2 19.3 0.00 0.00 0.00 80 1010.6
20260904023742 20 248 3.2 19.3 0.00 0.00 0.00 80 1010.5
20260904023647 20 234 3.2 11.3 0.00 0.00 0.00 79 1010.6
20260904023634 20 258 3.2 19.3 0.00 0.00 0.00 80 1010.5
20260904023541 20 257 3.2 19.3 0.00 0.00 0.00 79 1010.5
20260904023532 20 193 3.2 11.3 0.00 0.00 0.00 79 1010.6
20260904023333 20 243 3.2 11.3 0.00 0.00 0.00 79 1010.6
20260904023232 20 276 3.2 16.1 0.00 0.00 0.00 79 1010.6
20260904023147 20 214 4.8 16.1 0.00 0.00 0.00 79 1010.6
20260904023133 20 276 3.2 16.1 0.00 0.00 0.00 79 1010.6
20260904023041 20 273 3.2 16.1 0.00 0.00 0.00 79 1010.6
20260904023033 20 219 4.8 16.1 0.00 0.00 0.00 79 1010.6
20260904022829 20 228 3.2 16.1 0.00 0.00 0.00 79 1010.6
20260904022727 20 335 3.2 16.1 0.00 0.00 0.00 79 1010.6
20260904022626 20 280 3.2 16.1 0.00 0.00 0.00 79 1010.6
20260904022521 20 239 3.2 16.1 0.00 0.00 0.00 79 1010.5
20260904022421 20 298 4.8 19.3 0.00 0.00 0.00 79 1010.6
20260904022321 20 231 4.8 19.3 0.00 0.00 0.00 79 1010.5
20260904022220 20 223 3.2 19.3 0.00 0.00 0.00 79 1010.5
20260904022115 20 302 3.2 19.3 0.00 0.00 0.00 78 1010.5
20260904022015 20 253 3.2 19.3 0.00 0.00 0.00 78 1010.5
20260904021923 20 226 3.2 19.3 0.00 0.00 0.00 78 1010.5
20260904021915 20 257 3.2 19.3 0.00 0.00 0.00 78 1010.5
20260904021815 20 284 3.2 19.3 0.00 0.00 0.00 78 1010.6
20260904021714 20 219 3.2 19.3 0.00 0.00 0.00 78 1010.6
20260904021611 20 224 3.2 19.3 0.00 0.00 0.00 78 1010.5
20260904021509 20 255 3.2 19.3 0.00 0.00 0.00 78 1010.6
20260904021422 20 302 3.2 12.9 0.00 0.00 0.00 77 1010.6
20260904021410 20 262 3.2 12.9 0.00 0.00 0.00 77 1010.5
20260904021310 20 256 3.2 12.9 0.00 0.00 0.00 77 1010.5
20260904021209 20 159 3.2 12.9 0.00 0.00 0.00 77 1010.6
20260904021103 20 250 1.6 12.9 0.00 0.00 0.00 77 1010.6
20260904021004 20 246 1.6 11.3 0.00 0.00 0.00 77 1010.6
20260904020926 20 274 1.6 8.0 0.00 0.00 0.00 77 1010.6
20260904020903 20 225 1.6 8.0 0.00 0.00 0.00 77 1010.6
20260904020803 20 170 1.6 8.0 0.00 0.00 0.00 77 1010.6
20260904020703 20 318 1.6 8.0 0.00 0.00 0.00 77 1010.6
20260904020559 20 282 1.6 8.0 0.00 0.00 0.00 76 1010.6
20260904020457 20 285 1.6 12.9 0.00 0.00 0.00 76 1010.6
20260904020424 20 284 1.6 12.9 0.00 0.00 0.00 76 1010.6
20260904020357 20 284 1.6 12.9 0.00 0.00 0.00 76 1010.7
20260904020257 20 270 1.6 12.9 0.00 0.00 0.00 76 1010.7
20260904020156 20 277 1.6 12.9 0.00 0.00 0.00 76 1010.7
20260904020055 20 259 3.2 12.9 0.00 0.00 0.00 76 1010.7
20260904015954 20 258 3.2 12.9 0.00 0.00 0.00 76 1010.7
20260904015919 20 259 3.2 12.9 0.00 0.00 0.00 75 1010.7
20260904015852 20 259 3.2 12.9 0.00 0.00 0.00 75 1010.7
20260904015753 20 273 3.2 12.9 0.00 0.00 0.00 75 1010.7
20260904015650 20 228 3.2 12.9 0.00 0.00 0.00 75 1010.7
20260904015549 20 284 3.2 12.9 0.00 0.00 0.00 75 1010.8
20260904015446 20 233 3.2 11.3 0.00 0.00 0.00 75 1010.8
20260904015419 20 226 3.2 11.3 0.00 0.00 0.00 75 1010.8
20260904015413 20 252 3.2 16.1 0.00 0.00 0.00 74 1010.8
20260904015346 20 232 3.2 11.3 0.00 0.00 0.00 75 1010.8
20260904015256 20 271 3.2 11.3 0.00 0.00 0.00 75 1010.8
20260904015143 20 282 3.2 11.3 0.00 0.00 0.00 74 1010.8
20260904015037 20 312 3.2 11.3 0.00 0.00 0.00 74 1010.8
20260904015025 20 225 3.2 16.1 0.00 0.00 0.00 74 1010.8
20260904014837 20 246 3.2 16.1 0.00 0.00 0.00 74 1010.8
20260904014737 20 270 3.2 16.1 0.00 0.00 0.00 74 1010.7
20260904014634 21 245 3.2 16.1 0.00 0.00 0.00 74 1010.7
20260904014536 21 305 3.2 16.1 0.00 0.00 0.00 74 1010.7
20260904014417 21 253 3.2 16.1 0.00 0.00 0.00 74 1010.7
20260904014331 21 233 3.2 16.1 0.00 0.00 0.00 74 1010.7
20260904014231 21 243 3.2 16.1 0.00 0.00 0.00 74 1010.7
20260904014129 21 205 1.6 16.1 0.00 0.00 0.00 74 1010.7
20260904014023 21 296 1.6 16.1 0.00 0.00 0.00 74 1010.7
20260904013924 21 242 1.6 12.9 0.00 0.00 0.00 74 1010.7
20260904013916 21 239 1.6 12.9 0.00 0.00 0.00 74 1010.7
20260904013823 21 239 1.6 12.9 0.00 0.00 0.00 74 1010.7
20260904013722 21 242 1.6 12.9 0.00 0.00 0.00 74 1010.6
20260904013625 21 217 1.6 12.9 0.00 0.00 0.00 74 1010.7
20260904013519 21 232 1.6 12.9 0.00 0.00 0.00 74 1010.8
20260904013418 21 248 1.6 12.9 0.00 0.00 0.00 74 1010.7
20260904013317 21 290 1.6 11.3 0.00 0.00 0.00 74 1010.6
20260904013218 21 311 1.6 11.3 0.00 0.00 0.00 74 1010.7
20260904013115 21 335 1.6 11.3 0.00 0.00 0.00 74 1010.7
20260904013008 21 312 1.6 11.3 0.00 0.00 0.00 74 1010.7
20260904012916 21 311 1.6 11.3 0.00 0.00 0.00 74 1010.7
20260904012909 21 312 3.2 11.3 0.00 0.00 0.00 74 1010.7
20260904012807 21 311 3.2 12.9 0.00 0.00 0.00 74 1010.8
20260904012708 21 304 3.2 12.9 0.00 0.00 0.00 74 1010.8
20260904012607 21 266 3.2 12.9 0.00 0.00 0.00 74 1010.8
20260904012503 21 235 3.2 12.9 0.00 0.00 0.00 74 1010.8
20260904012417 21 243 3.2 12.9 0.00 0.00 0.00 74 1010.8
20260904012403 21 231 3.2 12.9 0.00 0.00 0.00 74 1010.8
20260904012306 21 239 3.2 12.9 0.00 0.00 0.00 74 1010.8
20260904012204 21 273 3.2 12.9 0.00 0.00 0.00 74 1010.8
20260904012100 21 273 3.2 12.9 0.00 0.00 0.00 73 1010.9
20260904011927 21 273 3.2 12.9 0.00 0.00 0.00 73 1010.9
20260904011853 21 239 3.2 12.9 0.00 0.00 0.00 73 1010.9
20260904011752 21 245 3.2 12.9 0.00 0.00 0.00 73 1010.8
20260904011653 21 235 3.2 12.9 0.00 0.00 0.00 73 1010.9
20260904011552 21 269 3.2 12.9 0.00 0.00 0.00 73 1010.9
20260904011450 21 250 1.6 9.7 0.00 0.00 0.00 73 1010.9
20260904011422 21 240 1.6 9.7 0.00 0.00 0.00 73 1010.9
20260904011349 21 257 1.6 9.7 0.00 0.00 0.00 73 1010.9
20260904011249 21 245 1.6 9.7 0.00 0.00 0.00 73 1010.9
20260904011147 21 301 1.6 9.7 0.00 0.00 0.00 73 1010.9
20260904011045 21 253 3.2 16.1 0.00 0.00 0.00 73 1010.9
20260904010941 21 240 3.2 16.1 0.00 0.00 0.00 73 1010.9
20260904010909 21 321 3.2 16.1 0.00 0.00 0.00 73 1010.9
20260904010838 21 350 3.2 16.1 0.00 0.00 0.00 72 1010.9
20260904010739 21 311 3.2 16.1 0.00 0.00 0.00 72 1010.9
20260904010638 21 233 3.2 16.1 0.00 0.00 0.00 72 1010.9
20260904010536 21 240 3.2 16.1 0.00 0.00 0.00 72 1010.9
20260904010410 21 240 3.2 16.1 0.00 0.00 0.00 72 1010.9
20260904010331 21 241 3.2 16.1 0.00 0.00 0.00 72 1010.9
20260904010232 21 264 3.2 16.1 0.00 0.00 0.00 72 1010.9
20260904010132 21 245 3.2 16.1 0.00 0.00 0.00 72 1011.0
20260904010030 21 256 3.2 8.0 0.00 0.00 0.00 71 1011.0
20260904005929 21 339 3.2 8.0 0.00 0.00 0.00 72 1011.0
20260904005911 21 319 3.2 8.0 0.00 0.00 0.00 72 1011.0
20260904005827 21 294 3.2 8.0 0.00 0.00 0.00 72 1011.0
20260904005727 21 256 3.2 8.0 0.00 0.00 0.00 71 1011.0
20260904005626 21 260 1.6 8.0 0.00 0.00 0.00 71 1011.0
20260904005523 21 238 1.6 8.0 0.00 0.00 0.00 71 1011.0
20260904005410 21 301 3.2 8.0 0.00 0.00 0.00 71 1011.0
20260904005318 21 294 3.2 11.3 0.00 0.00 0.00 71 1011.0
20260904005217 21 310 3.2 11.3 0.00 0.00 0.00 71 1011.0
20260904005132 21 203 3.2 11.3 0.00 0.00 0.00 70 1011.0
20260904005117 21 184 3.2 11.3 0.00 0.00 0.00 71 1011.0
20260904005025 21 229 3.2 11.3 0.00 0.00 0.00 70 1011.0
20260904005015 21 203 3.2 11.3 0.00 0.00 0.00 70 1011.0
20260904004808 21 207 3.2 11.3 0.00 0.00 0.00 70 1011.0
20260904004710 21 277 3.2 11.3 0.00 0.00 0.00 70 1010.9
20260904004607 22 253 1.6 11.3 0.00 0.00 0.00 70 1011.0
20260904004507 22 180 1.6 11.3 0.00 0.00 0.00 70 1011.0
20260904004409 22 276 1.6 11.3 0.00 0.00 0.00 70 1011.0
20260904004403 22 275 1.6 11.3 0.00 0.00 0.00 70 1011.0
20260904004301 22 277 1.6 9.7 0.00 0.00 0.00 70 1011.0
20260904004201 22 115 1.6 6.4 0.00 0.00 0.00 70 1011.0
20260904004132 22 310 1.6 6.4 0.00 0.00 0.00 70 1011.0
20260904004101 22 321 1.6 6.4 0.00 0.00 0.00 70 1011.0
20260904004020 22 177 1.6 6.4 0.00 0.00 0.00 70 1010.9
20260904003855 22 333 1.6 6.4 0.00 0.00 0.00 70 1011.0
20260904003758 22 233 1.6 6.4 0.00 0.00 0.00 70 1011.0
20260904003656 22 348 1.6 8.0 0.00 0.00 0.00 70 1011.0
20260904003555 22 260 1.6 8.0 0.00 0.00 0.00 70 1011.0
20260904003452 22 274 3.2 8.0 0.00 0.00 0.00 70 1011.0
20260904003412 22 273 3.2 9.7 0.00 0.00 0.00 70 1010.9
20260904003350 22 148 3.2 9.7 0.00 0.00 0.00 69 1010.9
20260904003247 22 328 3.2 9.7 0.00 0.00 0.00 69 1011.0
20260904003147 22 217 3.2 9.7 0.00 0.00 0.00 69 1010.9
20260904003047 22 150 3.2 9.7 0.00 0.00 0.00 69 1010.9
20260904002944 22 222 3.2 9.7 0.00 0.00 0.00 69 1011.0
20260904002909 22 207 3.2 9.7 0.00 0.00 0.00 69 1010.9
20260904002841 22 231 3.2 9.7 0.00 0.00 0.00 69 1010.9
20260904002740 22 253 1.6 9.7 0.00 0.00 0.00 69 1010.9
20260904002641 22 256 1.6 9.7 0.00 0.00 0.00 69 1010.8
20260904002624 22 274 1.6 9.7 0.00 0.00 0.00 68 1010.8
20260904002540 22 270 1.6 9.7 0.00 0.00 0.00 69 1010.8
20260904002520 22 224 1.6 9.7 0.00 0.00 0.00 68 1010.8
20260904002335 22 273 1.6 9.7 0.00 0.00 0.00 69 1010.8
20260904002236 22 136 1.6 9.7 0.00 0.00 0.00 69 1010.9
20260904002137 22 238 1.6 9.7 0.00 0.00 0.00 69 1010.9
20260904002035 22 305 1.6 9.7 0.00 0.00 0.00 69 1010.8
20260904001933 22 305 1.6 11.3 0.00 0.00 0.00 69 1010.8
20260904001909 22 304 1.6 11.3 0.00 0.00 0.00 69 1010.8
20260904001833 22 305 1.6 11.3 0.00 0.00 0.00 69 1010.8
20260904001733 22 280 1.6 11.3 0.00 0.00 0.00 68 1010.8
20260904001634 22 242 1.6 11.3 0.00 0.00 0.00 68 1010.8
20260904001531 22 288 1.6 11.3 0.00 0.00 0.00 68 1010.8
20260904001428 22 212 1.6 11.3 0.00 0.00 0.00 68 1010.8
20260904001407 22 290 1.6 11.3 0.00 0.00 0.00 68 1010.9
20260904001329 22 283 1.6 11.3 0.00 0.00 0.00 68 1010.9
20260904001228 22 283 1.6 11.3 0.00 0.00 0.00 68 1010.8
20260904001129 22 257 1.6 11.3 0.00 0.00 0.00 68 1010.9
20260904001028 22 300 1.6 12.9 0.00 0.00 0.00 68 1010.9
20260904000930 22 236 1.6 12.9 0.00 0.00 0.00 68 1010.9
20260904000919 22 197 3.2 14.5 0.00 0.00 0.00 68 1010.9
20260904000829 22 250 3.2 14.5 0.00 0.00 0.00 68 1010.9
20260904000727 22 250 3.2 14.5 0.00 0.00 0.00 67 1010.9
20260904000627 22 250 3.2 14.5 0.00 0.00 0.00 67 1010.9
20260904000526 22 250 3.2 14.5 0.00 0.00 0.00 67 1010.9
20260904000426 22 250 3.2 14.5 0.00 0.00 0.00 67 1010.9
20260904000410 22 233 3.2 14.5 0.00 0.00 0.00 67 1011.0
20260904000327 22 238 3.2 14.5 0.00 0.00 0.00 66 1011.0
20260904000226 22 283 3.2 16.1 0.00 0.00 0.00 66 1011.0
20260904000126 23 297 3.2 16.1 0.00 0.00 0.00 66 1011.0
20260904000021 23 238 3.2 16.1 0.00 0.00 0.00 66 1010.9
20260903235920 23 274 3.2 16.1 0.00 0.00 0.00 66 1010.9
20260903235902 23 26 3.2 16.1 0.00 0.00 0.00 66 1010.9
20260903235821 23 325 3.2 16.1 0.00 0.00 0.00 67 1010.9
20260903235720 23 288 3.2 16.1 0.00 0.00 0.00 66 1010.9
20260903235617 23 325 3.2 16.1 0.00 0.00 0.00 67 1010.9
20260903235515 23 201 3.2 16.1 0.00 0.00 0.00 66 1010.9
20260903235415 23 239 3.2 16.1 0.00 0.00 0.00 66 1010.9
20260903235356 23 222 3.2 16.1 0.00 0.00 0.00 66 1010.9
20260903235315 23 326 3.2 16.1 0.00 0.00 0.00 66 1010.9
20260903235214 23 219 3.2 16.1 0.00 0.00 0.00 66 1011.0
20260903235110 23 252 3.2 16.1 0.00 0.00 0.00 66 1011.0
20260903235008 23 273 3.2 19.3 0.00 0.00 0.00 66 1010.9
20260903234909 23 232 3.2 19.3 0.00 0.00 0.00 66 1010.9
20260903234850 23 281 3.2 19.3 0.00 0.00 0.00 66 1010.9
20260903234809 23 136 3.2 19.3 0.00 0.00 0.00 66 1010.9
20260903234709 23 161 3.2 19.3 0.00 0.00 0.00 66 1011.0
20260903234602 23 317 3.2 19.3 0.00 0.00 0.00 66 1010.9
20260903234504 23 6 3.2 19.3 0.00 0.00 0.00 66 1010.9
20260903234403 23 293 3.2 19.3 0.00 0.00 0.00 66 1010.9
20260903234344 23 327 3.2 19.3 0.00 0.00 0.00 66 1010.9
20260903234302 23 218 3.2 19.3 0.00 0.00 0.00 66 1011.0
20260903234201 23 148 3.2 19.3 0.00 0.00 0.00 66 1011.0
20260903234059 23 214 3.2 19.3 0.00 0.00 0.00 66 1011.0
20260903233958 23 314 3.2 12.9 0.00 0.00 0.00 66 1011.0
20260903233858 23 8 3.2 9.7 0.00 0.00 0.00 66 1011.0
20260903233838 23 250 3.2 9.7 0.00 0.00 0.00 66 1011.0
20260903233759 23 266 3.2 11.3 0.00 0.00 0.00 66 1011.0
20260903233655 23 291 3.2 14.5 0.00 0.00 0.00 66 1011.0
20260903233602 23 259 4.8 16.1 0.00 0.00 0.00 65 1011.0
20260903233551 23 297 3.2 14.5 0.00 0.00 0.00 66 1011.0
20260903233451 23 248 4.8 14.5 0.00 0.00 0.00 66 1011.0
20260903233441 23 318 4.8 16.1 0.00 0.00 0.00 65 1011.0
20260903233251 23 233 4.8 16.1 0.00 0.00 0.00 65 1011.0
20260903233150 23 256 4.8 16.1 0.00 0.00 0.00 66 1011.0
20260903233053 23 200 4.8 16.1 0.00 0.00 0.00 65 1011.0
20260903233047 23 253 4.8 16.1 0.00 0.00 0.00 66 1011.0
20260903232946 23 273 4.8 16.1 0.00 0.00 0.00 65 1011.0
20260903232935 23 256 4.8 16.1 0.00 0.00 0.00 65 1011.0
20260903232745 23 288 4.8 16.1 0.00 0.00 0.00 65 1011.0
20260903232645 23 280 4.8 16.1 0.00 0.00 0.00 65 1011.0
20260903232544 23 277 3.2 17.7 0.00 0.00 0.00 65 1011.0
20260903232540 23 274 4.8 16.1 0.00 0.00 0.00 65 1011.0
20260903232438 23 281 3.2 17.7 0.00 0.00 0.00 65 1011.0
20260903232429 23 277 3.2 17.7 0.00 0.00 0.00 65 1011.0
20260903232239 23 231 4.8 17.7 0.00 0.00 0.00 65 1011.0
20260903232138 23 305 4.8 17.7 0.00 0.00 0.00 65 1011.1
20260903232035 23 287 4.8 17.7 0.00 0.00 0.00 65 1011.0
20260903231933 23 310 4.8 17.7 0.00 0.00 0.00 65 1011.0
20260903231832 23 321 4.8 17.7 0.00 0.00 0.00 64 1011.0
20260903231817 23 267 4.8 17.7 0.00 0.00 0.00 64 1011.0
20260903231733 23 308 4.8 17.7 0.00 0.00 0.00 64 1011.0
20260903231632 23 253 4.8 17.7 0.00 0.00 0.00 64 1011.1
20260903231530 23 236 4.8 17.7 0.00 0.00 0.00 64 1011.0
20260903231430 23 266 4.8 17.7 0.00 0.00 0.00 63 1011.0
20260903231331 23 291 4.8 17.7 0.00 0.00 0.00 63 1011.0
20260903231308 23 226 4.8 17.7 0.00 0.00 0.00 63 1011.1
20260903231229 24 248 4.8 17.7 0.00 0.00 0.00 63 1011.1
20260903231126 24 303 4.8 16.1 0.00 0.00 0.00 63 1011.1
20260903231022 24 290 4.8 16.1 0.00 0.00 0.00 63 1011.1
20260903230920 24 232 3.2 14.5 0.00 0.00 0.00 62 1011.1
20260903230821 24 277 4.8 14.5 0.00 0.00 0.00 62 1011.1
20260903230802 24 263 4.8 14.5 0.00 0.00 0.00 62 1011.1
20260903230721 24 256 4.8 14.5 0.00 0.00 0.00 63 1011.1
20260903230625 24 278 4.8 14.5 0.00 0.00 0.00 62 1011.1
20260903230516 24 253 3.2 14.5 0.00 0.00 0.00 62 1011.1
20260903230414 24 250 3.2 14.5 0.00 0.00 0.00 62 1011.1
20260903230315 24 278 4.8 14.5 0.00 0.00 0.00 61 1011.2
20260903230256 24 236 4.8 14.5 0.00 0.00 0.00 61 1011.2
20260903230215 24 283 4.8 14.5 0.00 0.00 0.00 61 1011.2
20260903230114 24 311 4.8 14.5 0.00 0.00 0.00 61 1011.2
20260903230011 25 269 3.2 14.5 0.00 0.00 0.00 62 1011.2
20260903225909 24 248 3.2 14.5 0.00 0.00 0.00 61 1011.2
20260903225809 24 250 4.8 14.5 0.00 0.00 0.00 61 1011.2
20260903225752 24 232 4.8 14.5 0.00 0.00 0.00 61 1011.2
20260903225708 24 208 4.8 19.3 0.00 0.00 0.00 62 1011.2
20260903225609 24 269 4.8 25.7 0.00 0.00 0.00 62 1011.2
20260903225508 24 243 4.8 25.7 0.00 0.00 0.00 62 1011.2
20260903225408 24 291 4.8 25.7 0.00 0.00 0.00 62 1011.2
20260903225306 24 271 4.8 25.7 0.00 0.00 0.00 62 1011.2
20260903225255 24 280 4.8 25.7 0.00 0.00 0.00 62 1011.2
20260903225203 24 255 4.8 25.7 0.00 0.00 0.00 62 1011.2
20260903225103 24 281 4.8 25.7 0.00 0.00 0.00 62 1011.2
20260903225002 24 266 4.8 25.7 0.00 0.00 0.00 62 1011.2
20260903224902 24 248 6.4 25.7 0.00 0.00 0.00 61 1011.2
20260903224806 24 235 6.4 25.7 0.00 0.00 0.00 60 1011.3
20260903224757 24 232 6.4 25.7 0.00 0.00 0.00 60 1011.3
20260903224702 24 229 4.8 25.7 0.00 0.00 0.00 61 1011.2
20260903224603 24 260 4.8 19.3 0.00 0.00 0.00 61 1011.3
20260903224503 24 250 4.8 19.3 0.00 0.00 0.00 61 1011.3
20260903224401 24 243 4.8 19.3 0.00 0.00 0.00 62 1011.3